M I D A S
Marine Information and Data Acquisition System
Tripno 712 of the Zeeleeuw from 2004-05-05 06:36:16 to 2004-05-05 12:16:44
Back to CruiseResearch ActivitiesStationsMapUnderway DataData graphs

EquipmentUnitsComment
TimeDGPSUTC
LatitudeDGPSDM.mWGS84
LongitudeDGPSDM.mWGS84
TemperatureSBE03/SBE38deg celciusITS90
ConductivitySBE21S/mITS90
SalinitySBE21 Practical Salinity Units
ChlorophylAChelsea fluorimeterg/lCalibrated in Aceton
Missing or incorrect values are displayed as -999
Sea surface data collected by the RV Zeeleeuw from 2004-05-05 06:36:16 to 2004-05-05 12:16:44
                                                                                    Next 1000 lines
Time Latitude Longitude Temperature Conductivity Salinity ChlorophylA
2004-05-05 06:36:24 51°13.605 2°56.06 18.024568 0.069095 0.401484 7.612392
2004-05-05 06:36:29 51°13.607 2°56.053 18.026483 0.069095 0.401484 7.646101
2004-05-05 06:36:33 51°13.609 2°56.046 18.030313 0.069095 0.401484 7.612392
2004-05-05 06:36:38 51°13.611 2°56.038 18.033268 0.069095 0.401484 7.612392
2004-05-05 06:36:43 51°13.614 2°56.03 18.034059 0.069095 0.401491 7.646101
2004-05-05 06:36:48 51°13.616 2°56.021 18.034059 0.069095 0.401491 7.646101
2004-05-05 06:36:53 51°13.619 2°56.012 18.040093 0.069095 0.401491 7.646101
2004-05-05 06:36:58 51°13.621 2°56.003 18.045461 0.069095 0.401512 7.646101
2004-05-05 06:37:02 51°13.623 2°55.996 18.050288 0.069095 0.401519 7.646101
2004-05-05 06:37:08 51°13.626 2°55.985 18.05058 0.069095 0.401547 7.612392
2004-05-05 06:37:13 51°13.629 2°55.975 18.04542 0.069095 0.401575 7.578683
2004-05-05 06:37:18 51°13.632 2°55.965 18.04542 0.069095 0.401575 7.578683
2004-05-05 06:37:24 51°13.635 2°55.953 18.048707 0.069095 0.401596 7.578683
2004-05-05 06:37:28 51°13.637 2°55.945 18.054366 0.069095 0.401617 7.612392
2004-05-05 06:37:32 51°13.64 2°55.937 18.051121 0.069095 0.40161 7.612392
2004-05-05 06:37:38 51°13.643 2°55.924 18.046502 0.069095 0.401617 7.612392
2004-05-05 06:37:44 51°13.646 2°55.911 18.046294 0.069095 0.401624 7.612392
2004-05-05 06:37:48 51°13.648 2°55.902 18.046294 0.069095 0.401624 7.612392
2004-05-05 06:37:53 51°13.651 2°55.891 18.05162 0.069095 0.401631 7.612392
2004-05-05 06:37:58 51°13.654 2°55.88 18.093799 0.069095 0.401638 7.612392
2004-05-05 06:38:02 51°13.656 2°55.871 18.098082 0.069095 0.401645 7.612392
2004-05-05 06:38:08 51°13.659 2°55.857 18.092094 0.069095 0.401652 7.646101
2004-05-05 06:38:13 51°13.661 2°55.846 18.076332 0.069095 0.401666 7.612392
2004-05-05 06:38:18 51°13.663 2°55.835 18.076332 0.069095 0.401666 7.612392
2004-05-05 06:38:24 51°13.665 2°55.821 18.070799 0.069095 0.40168 7.612392
2004-05-05 06:38:28 51°13.666 2°55.812 18.070342 0.069095 0.401694 7.646101
2004-05-05 06:38:33 51°13.667 2°55.8 18.070425 0.069095 0.401708 7.612392
2004-05-05 06:38:38 51°13.667 2°55.789 18.068511 0.069095 0.401722 7.646101
2004-05-05 06:38:43 51°13.668 2°55.778 18.07005 0.069095 0.401736 7.578683
2004-05-05 06:38:48 51°13.667 2°55.767 18.07005 0.069095 0.401736 7.578683
2004-05-05 06:38:53 51°13.667 2°55.759 18.07708 0.069095 0.401757 7.612392
2004-05-05 06:38:58 51°13.667 2°55.754 18.100036 0.069095 0.401778 7.646101
2004-05-05 06:39:03 51°13.667 2°55.752 18.16886 0.069095 0.401814 7.679811
2004-05-05 06:39:08 51°13.667 2°55.752 18.215866 0.069095 0.401898 7.612392
2004-05-05 06:39:13 51°13.668 2°55.753 18.185016 0.069095 0.401968 7.612392
2004-05-05 06:39:18 51°13.67 2°55.755 18.185016 0.069095 0.401968 7.612392
2004-05-05 06:39:23 51°13.672 2°55.758 18.184061 0.069095 0.402003 7.612392
2004-05-05 06:39:28 51°13.674 2°55.761 18.196893 0.069095 0.40201 7.578683
2004-05-05 06:39:33 51°13.677 2°55.763 18.165287 0.069095 0.401975 7.612392
2004-05-05 06:39:37 51°13.679 2°55.765 18.116625 0.069095 0.401905 7.578683
2004-05-05 06:39:42 51°13.68 2°55.766 18.076248 0.069095 0.401814 7.612392
2004-05-05 06:39:48 51°13.681 2°55.766 18.076248 0.069095 0.401814 7.612392
2004-05-05 06:39:52 51°13.681 2°55.766 18.056613 0.069095 0.401722 7.646101
2004-05-05 06:39:58 51°13.68 2°55.765 18.062063 0.069095 0.401645 7.578683
2004-05-05 06:40:03 51°13.679 2°55.764 18.038262 0.069095 0.401617 7.646101
2004-05-05 06:40:08 51°13.677 2°55.762 18.075416 0.069095 0.401624 7.646101
2004-05-05 06:40:13 51°13.675 2°55.761 18.079118 0.069095 0.401652 7.578683
2004-05-05 06:40:18 51°13.675 2°55.76 18.079118 0.069095 0.401652 7.578683
2004-05-05 06:40:22 51°13.675 2°55.76 18.105442 0.069095 0.401708 7.612392
2004-05-05 06:40:28 51°13.677 2°55.759 18.151577 0.069095 0.401778 7.71352
2004-05-05 06:40:32 51°13.679 2°55.759 18.241308 0.068991 0.401209 7.71352
2004-05-05 06:40:38 51°13.684 2°55.757 18.287477 0.068991 0.401251 7.74723
2004-05-05 06:40:42 51°13.688 2°55.755 18.291168 0.068991 0.401272 7.646101
2004-05-05 06:40:48 51°13.693 2°55.751 18.291168 0.068991 0.401272 7.646101
2004-05-05 06:40:52 51°13.697 2°55.748 18.248652 0.069095 0.401898 7.612392
2004-05-05 06:40:58 51°13.702 2°55.744 18.178953 0.069095 0.401877 7.646101
2004-05-05 06:41:02 51°13.706 2°55.74 18.148627 0.068991 0.401216 7.646101
2004-05-05 06:41:08 51°13.712 2°55.734 18.138363 0.068991 0.401188 7.612392
2004-05-05 06:41:13 51°13.719 2°55.729 18.115295 0.068991 0.401174 7.578683
2004-05-05 06:41:18 51°13.725 2°55.724 18.115295 0.068991 0.401174 7.578683
2004-05-05 06:41:22 51°13.731 2°55.72 18.063478 0.068991 0.401167 7.578683
2004-05-05 06:41:28 51°13.741 2°55.713 18.031603 0.069095 0.401792 7.612392
2004-05-05 06:41:32 51°13.748 2°55.708 18.004544 0.068991 0.401153 7.612392
2004-05-05 06:41:38 51°13.759 2°55.701 17.997506 0.069095 0.401771 7.612392
2004-05-05 06:41:42 51°13.766 2°55.695 17.980764 0.069095 0.401764 7.578683
2004-05-05 06:41:48 51°13.778 2°55.686 17.980764 0.069095 0.401764 7.578683
2004-05-05 06:41:52 51°13.786 2°55.681 17.94756 0.068991 0.401139 7.578683
2004-05-05 06:41:58 51°13.8 2°55.673 17.91017 0.069095 0.401757 7.612392
2004-05-05 06:42:02 51°13.809 2°55.668 17.879893 0.068991 0.401125 7.578683
2004-05-05 06:42:08 51°13.823 2°55.66 17.856572 0.068991 0.401118 7.612392
2004-05-05 06:42:12 51°13.832 2°55.655 17.843969 0.068991 0.401104 7.612392
2004-05-05 06:42:18 51°13.846 2°55.649 17.843969 0.068991 0.401104 7.612392
2004-05-05 06:42:23 51°13.857 2°55.644 17.848727 0.068991 0.40109 7.578683
2004-05-05 06:42:28 51°13.87 2°55.641 17.86258 0.068991 0.401083 7.612392
2004-05-05 06:42:33 51°13.882 2°55.638 17.884314 0.069095 0.401687 7.578683
2004-05-05 06:42:37 51°13.892 2°55.635 17.895408 0.068991 0.401055 7.578683
2004-05-05 06:42:42 51°13.904 2°55.632 17.922135 0.068991 0.401048 7.578683
2004-05-05 06:42:48 51°13.918 2°55.628 17.922135 0.068991 0.401048 7.578683
2004-05-05 06:42:52 51°13.928 2°55.626 17.936016 0.069095 0.401659 7.578683
2004-05-05 06:42:58 51°13.942 2°55.623 17.944268 0.069095 0.401645 7.578683
2004-05-05 06:43:02 51°13.952 2°55.62 17.933598 0.069095 0.401652 7.612392
2004-05-05 06:43:08 51°13.966 2°55.617 17.934932 0.069095 0.401666 7.578683
2004-05-05 06:43:12 51°13.975 2°55.614 17.946435 0.068991 0.401048 7.578683
2004-05-05 06:43:18 51°13.988 2°55.609 17.946435 0.068991 0.401048 7.578683
2004-05-05 06:43:23 51°13.998 2°55.604 17.981223 0.069095 0.401687 7.612392
2004-05-05 06:43:28 51°14.007 2°55.596 18.06327 0.069095 0.401694 7.578683
2004-05-05 06:43:33 51°14.015 2°55.588 18.101118 0.069095 0.401687 7.612392
2004-05-05 06:43:37 51°14.022 2°55.58 18.160385 0.069095 0.401687 7.612392
2004-05-05 06:43:42 51°14.029 2°55.569 18.155732 0.069095 0.401659 7.612392
2004-05-05 06:43:48 51°14.037 2°55.556 18.155732 0.069095 0.401659 7.612392
2004-05-05 06:43:52 51°14.043 2°55.547 18.096128 0.069095 0.401652 7.646101
2004-05-05 06:43:58 51°14.052 2°55.533 18.059068 0.069095 0.401659 7.612392
2004-05-05 06:44:02 51°14.058 2°55.524 18.024943 0.069095 0.401673 7.578683
2004-05-05 06:44:08 51°14.066 2°55.51 17.99126 0.069095 0.401687 7.612392
2004-05-05 06:44:12 51°14.072 2°55.5 17.97889 0.069095 0.401708 7.578683
2004-05-05 06:44:18 51°14.082 2°55.486 17.97889 0.069095 0.401708 7.578683
2004-05-05 06:44:22 51°14.088 2°55.476 17.981847 0.069095 0.401701 7.612392
2004-05-05 06:44:28 51°14.1 2°55.462 17.980639 0.069095 0.401722 7.612392
2004-05-05 06:44:32 51°14.107 2°55.453 17.981597 0.069095 0.401743 7.578683
2004-05-05 06:44:38 51°14.12 2°55.439 17.978598 0.069095 0.401764 7.578683
2004-05-05 06:44:42 51°14.129 2°55.43 17.965726 0.069095 0.401785 7.578683
2004-05-05 06:44:48 51°14.143 2°55.416 17.965726 0.069095 0.401785 7.578683
2004-05-05 06:44:53 51°14.154 2°55.404 17.971642 0.069095 0.401821 7.578683
2004-05-05 06:44:58 51°14.166 2°55.392 17.985263 0.069095 0.401828 7.612392
2004-05-05 06:45:02 51°14.175 2°55.382 17.981472 0.069095 0.401821 7.612392
2004-05-05 06:45:08 51°14.19 2°55.366 17.976266 0.069095 0.401821 7.578683
2004-05-05 06:45:12 51°14.2 2°55.355 17.970726 0.069095 0.401821 7.578683
2004-05-05 06:45:18 51°14.215 2°55.338 17.970726 0.069095 0.401821 7.578683
2004-05-05 06:45:22 51°14.224 2°55.325 17.995008 0.069095 0.401828 7.612392
2004-05-05 06:45:28 51°14.238 2°55.305 18.017284 0.069095 0.401828 7.578683
2004-05-05 06:45:33 51°14.249 2°55.288 18.030229 0.069095 0.401814 7.612392
2004-05-05 06:45:37 51°14.257 2°55.273 18.037513 0.069095 0.401799 7.578683
2004-05-05 06:45:43 51°14.27 2°55.251 18.011414 0.069095 0.401771 7.578683
2004-05-05 06:45:48 51°14.28 2°55.232 18.011414 0.069095 0.401771 7.578683
2004-05-05 06:45:52 51°14.289 2°55.216 17.965643 0.069095 0.401778 7.578683
2004-05-05 06:45:58 51°14.301 2°55.193 17.952144 0.069095 0.401757 7.544973
2004-05-05 06:46:02 51°14.309 2°55.177 17.946935 0.069095 0.40175 7.612392
2004-05-05 06:46:08 51°14.322 2°55.152 17.9406 0.069095 0.401736 7.578683
2004-05-05 06:46:12 51°14.33 2°55.136 17.911045 0.069095 0.401715 7.578683
2004-05-05 06:46:18 51°14.343 2°55.111 17.911045 0.069095 0.401715 7.578683
2004-05-05 06:46:23 51°14.354 2°55.091 17.892531 0.069095 0.401715 7.578683
2004-05-05 06:46:28 51°14.365 2°55.07 17.906125 0.069095 0.401701 7.544973
2004-05-05 06:46:33 51°14.377 2°55.048 17.911254 0.069095 0.401701 7.578683
2004-05-05 06:46:38 51°14.388 2°55.026 17.919509 0.069095 0.401694 7.578683
2004-05-05 06:46:42 51°14.396 2°55.007 17.966976 0.069095 0.40168 7.578683
2004-05-05 06:46:48 51°14.409 2°54.979 17.966976 0.069095 0.40168 7.578683
2004-05-05 06:46:53 51°14.419 2°54.954 17.990968 0.069095 0.401666 7.578683
2004-05-05 06:46:58 51°14.429 2°54.929 17.972142 0.069095 0.401645 7.578683
2004-05-05 06:47:02 51°14.436 2°54.908 18.031977 0.069095 0.401659 7.612392
2004-05-05 06:47:08 51°14.445 2°54.875 18.089599 0.069095 0.401666 7.612392
2004-05-05 06:47:13 51°14.451 2°54.846 18.112884 0.069095 0.401652 7.612392
2004-05-05 06:47:18 51°14.456 2°54.816 18.112884 0.069095 0.401652 7.612392
2004-05-05 06:47:22 51°14.46 2°54.792 18.090056 0.069095 0.401624 7.646101
2004-05-05 06:47:28 51°14.466 2°54.756 18.021113 0.069095 0.401596 7.578683
2004-05-05 06:47:32 51°14.469 2°54.732 17.988969 0.069095 0.401589 7.612392
2004-05-05 06:47:38 51°14.475 2°54.696 17.974266 0.069095 0.401596 7.578683
2004-05-05 06:47:42 51°14.479 2°54.672 18.031644 0.069095 0.401624 7.578683
2004-05-05 06:47:48 51°14.483 2°54.634 18.031644 0.069095 0.401624 7.578683
2004-05-05 06:47:52 51°14.485 2°54.61 18.065391 0.069095 0.401638 7.612392
2004-05-05 06:47:58 51°14.486 2°54.576 18.03256 0.069095 0.401652 7.578683
2004-05-05 06:48:03 51°14.487 2°54.549 18.05653 0.069095 0.401673 7.612392
2004-05-05 06:48:08 51°14.486 2°54.523 18.095379 0.069095 0.401687 7.612392
2004-05-05 06:48:13 51°14.484 2°54.499 18.075749 0.069095 0.401666 7.578683
2004-05-05 06:48:18 51°14.481 2°54.477 18.075749 0.069095 0.401666 7.578683
2004-05-05 06:48:23 51°14.479 2°54.456 18.057695 0.069095 0.401659 7.612392
2004-05-05 06:48:28 51°14.477 2°54.437 18.037596 0.069095 0.401673 7.578683
2004-05-05 06:48:33 51°14.475 2°54.419 18.02332 0.069095 0.401694 7.578683
2004-05-05 06:48:36 51°14.475 2°54.408 18.04234 0.069095 0.401715 7.544973
2004-05-05 06:48:42 51°14.473 2°54.388 18.044213 0.069095 0.40175 7.578683
2004-05-05 06:48:48 51°14.472 2°54.369 18.044213 0.069095 0.40175 7.578683
2004-05-05 06:48:52 51°14.472 2°54.357 18.043797 0.069095 0.401771 7.578683
2004-05-05 06:48:56 51°14.471 2°54.346 18.055947 0.069095 0.401799 7.544973
2004-05-05 06:49:02 51°14.471 2°54.329 18.061481 0.069095 0.401828 7.544973
2004-05-05 06:49:08 51°14.47 2°54.312 18.070175 0.069095 0.401856 7.544973
2004-05-05 06:49:12 51°14.47 2°54.302 18.067638 0.069095 0.401877 7.544973
2004-05-05 06:49:18 51°14.47 2°54.286 18.067638 0.069095 0.401877 7.544973
2004-05-05 06:49:22 51°14.471 2°54.276 18.073337 0.069095 0.401898 7.578683
2004-05-05 06:49:28 51°14.471 2°54.261 18.07733 0.069095 0.401919 7.544973
2004-05-05 06:49:32 51°14.472 2°54.252 18.078952 0.069095 0.401947 7.544973
2004-05-05 06:49:38 51°14.472 2°54.238 18.087686 0.069095 0.401947 7.544973
2004-05-05 06:49:42 51°14.473 2°54.229 18.07654 0.069095 0.401968 7.544973
2004-05-05 06:49:48 51°14.474 2°54.216 18.07654 0.069095 0.401968 7.544973
2004-05-05 06:49:52 51°14.474 2°54.207 18.073711 0.069095 0.401968 7.511264
2004-05-05 06:49:57 51°14.475 2°54.197 18.077704 0.069095 0.401989 7.544973
2004-05-05 06:50:00 51°14.476 2°54.191 18.084276 0.069095 0.401996 7.544973
2004-05-05 06:50:06 51°14.477 2°54.179 18.076332 0.069095 0.40201 7.544973
2004-05-05 06:50:12 51°14.478 2°54.167 18.076872 0.069095 0.402025 7.511264
2004-05-05 06:50:18 51°14.48 2°54.156 18.076872 0.069095 0.402025 7.511264
2004-05-05 06:50:22 51°14.481 2°54.148 18.078578 0.069095 0.402032 7.544973
2004-05-05 06:50:28 51°14.482 2°54.137 18.078661 0.069095 0.402053 7.544973
2004-05-05 06:50:32 51°14.483 2°54.13 18.076914 0.069095 0.402067 7.544973
2004-05-05 06:50:37 51°14.484 2°54.121 18.077455 0.069095 0.402095 7.544973
2004-05-05 06:50:42 51°14.485 2°54.112 18.081572 0.069095 0.402102 7.544973
2004-05-05 06:50:48 51°14.486 2°54.102 18.081572 0.069095 0.402102 7.544973
2004-05-05 06:50:52 51°14.487 2°54.095 18.088268 0.069095 0.402116 7.544973
2004-05-05 06:50:58 51°14.488 2°54.085 18.085648 0.069095 0.40213 7.544973
2004-05-05 06:51:02 51°14.489 2°54.079 18.086771 0.069095 0.402137 7.544973
2004-05-05 06:51:08 51°14.49 2°54.069 18.089765 0.069095 0.402137 7.544973
2004-05-05 06:51:13 51°14.491 2°54.061 18.08257 0.068991 0.401525 7.511264
2004-05-05 06:51:18 51°14.491 2°54.053 18.08257 0.068991 0.401525 7.511264
2004-05-05 06:51:22 51°14.492 2°54.047 18.083236 0.069095 0.402151 7.544973
2004-05-05 06:51:28 51°14.493 2°54.038 18.08099 0.068991 0.401539 7.544973
2004-05-05 06:51:33 51°14.493 2°54.031 18.080699 0.068991 0.401539 7.511264
2004-05-05 06:51:38 51°14.494 2°54.024 18.086189 0.069095 0.402179 7.544973
2004-05-05 06:51:42 51°14.494 2°54.018 18.082654 0.068991 0.401553 7.511264
2004-05-05 06:51:48 51°14.495 2°54.01 18.082654 0.068991 0.401553 7.511264
2004-05-05 06:51:52 51°14.496 2°54.004 18.086688 0.068991 0.40156 7.544973
2004-05-05 06:51:58 51°14.497 2°53.996 18.089765 0.068991 0.401553 7.511264
2004-05-05 06:52:02 51°14.497 2°53.991 18.101325 0.068991 0.40156 7.511264
2004-05-05 06:52:08 51°14.498 2°53.983 18.097209 0.068991 0.40156 7.544973
2004-05-05 06:52:13 51°14.499 2°53.976 18.089391 0.068991 0.401567 7.544973
2004-05-05 06:52:18 51°14.499 2°53.97 18.089391 0.068991 0.401567 7.544973
2004-05-05 06:52:22 51°14.499 2°53.965 18.085939 0.068991 0.401567 7.544973
2004-05-05 06:52:28 51°14.5 2°53.958 18.092926 0.068991 0.401567 7.544973
2004-05-05 06:52:33 51°14.501 2°53.952 18.094631 0.068991 0.401581 7.544973
2004-05-05 06:52:38 51°14.501 2°53.946 18.092468 0.068991 0.401588 7.544973
2004-05-05 06:52:43 51°14.501 2°53.94 18.098831 0.068991 0.401588 7.544973
2004-05-05 06:52:48 51°14.502 2°53.934 18.098831 0.068991 0.401588 7.544973
2004-05-05 06:52:53 51°14.502 2°53.928 18.096128 0.068991 0.401588 7.578683
2004-05-05 06:52:58 51°14.503 2°53.923 18.09172 0.068991 0.401602 7.511264
2004-05-05 06:53:02 51°14.503 2°53.918 18.096294 0.068991 0.401602 7.511264
2004-05-05 06:53:08 51°14.504 2°53.912 18.098997 0.068991 0.401616 7.544973
2004-05-05 06:53:12 51°14.504 2°53.907 18.102282 0.068991 0.401616 7.511264
2004-05-05 06:53:18 51°14.505 2°53.9 18.102282 0.068991 0.401616 7.511264
2004-05-05 06:53:23 51°14.506 2°53.893 18.125271 0.068991 0.401631 7.544973
2004-05-05 06:53:28 51°14.508 2°53.886 18.110181 0.068991 0.401616 7.511264
2004-05-05 06:53:32 51°14.51 2°53.879 18.092385 0.068991 0.401609 7.544973
2004-05-05 06:53:38 51°14.514 2°53.87 18.075001 0.068991 0.401609 7.511264
2004-05-05 06:53:42 51°14.517 2°53.864 18.081448 0.068991 0.401624 7.511264
2004-05-05 06:53:48 51°14.523 2°53.855 18.081448 0.068991 0.401624 7.511264
2004-05-05 06:53:52 51°14.527 2°53.849 18.081448 0.068991 0.401645 7.511264
2004-05-05 06:53:58 51°14.534 2°53.841 18.077163 0.068991 0.401659 7.511264
2004-05-05 06:54:02 51°14.539 2°53.835 18.088435 0.068991 0.401673 7.511264
2004-05-05 06:54:08 51°14.549 2°53.827 18.095171 0.068991 0.401694 7.477554
2004-05-05 06:54:13 51°14.558 2°53.82 18.10224 0.068991 0.401715 7.511264
2004-05-05 06:54:18 51°14.568 2°53.812 18.10224 0.068991 0.401715 7.511264
2004-05-05 06:54:23 51°14.579 2°53.802 18.130051 0.068991 0.401729 7.477554
2004-05-05 06:54:28 51°14.591 2°53.793 18.120075 0.068991 0.401715 7.511264
2004-05-05 06:54:33 51°14.603 2°53.782 18.066639 0.068991 0.401694 7.544973
2004-05-05 06:54:38 51°14.617 2°53.772 17.986637 0.068991 0.401666 7.477554
2004-05-05 06:54:42 51°14.629 2°53.764 17.949435 0.068991 0.401624 7.477554
2004-05-05 06:54:48 51°14.646 2°53.752 17.949435 0.068991 0.401624 7.477554
2004-05-05 06:54:53 51°14.662 2°53.742 17.924511 0.068991 0.401581 7.511264
2004-05-05 06:54:58 51°14.678 2°53.732 17.921093 0.068991 0.401532 7.511264
2004-05-05 06:55:02 51°14.691 2°53.724 17.919009 0.068991 0.401476 7.511264
2004-05-05 06:55:08 51°14.71 2°53.712 17.921343 0.068991 0.401413 7.511264
2004-05-05 06:55:12 51°14.723 2°53.703 17.93785 0.068991 0.401356 7.544973
2004-05-05 06:55:18 51°14.742 2°53.689 17.93785 0.068991 0.401356 7.544973
2004-05-05 06:55:22 51°14.755 2°53.679 17.932556 0.068991 0.4013 7.511264
2004-05-05 06:55:28 51°14.775 2°53.665 17.93239 0.068991 0.40123 7.477554
2004-05-05 06:55:32 51°14.788 2°53.656 17.931889 0.068991 0.401181 7.477554
2004-05-05 06:55:38 51°14.808 2°53.642 17.940934 0.068991 0.401153 7.511264
2004-05-05 06:55:43 51°14.824 2°53.63 17.93935 0.068991 0.401125 7.511264
2004-05-05 06:55:48 51°14.84 2°53.617 17.93935 0.068991 0.401125 7.511264
2004-05-05 06:55:52 51°14.853 2°53.607 17.933682 0.068991 0.40109 7.511264
2004-05-05 06:55:58 51°14.873 2°53.592 17.94035 0.068991 0.401062 7.511264
2004-05-05 06:56:02 51°14.886 2°53.582 17.942934 0.069095 0.401659 7.477554
2004-05-05 06:56:08 51°14.905 2°53.566 17.940475 0.069095 0.401645 7.477554
2004-05-05 06:56:13 51°14.92 2°53.553 17.939433 0.069095 0.401631 7.443845
2004-05-05 06:56:18 51°14.937 2°53.541 17.939433 0.069095 0.401631 7.443845
2004-05-05 06:56:23 51°14.953 2°53.529 17.938308 0.069095 0.401624 7.477554
2004-05-05 06:56:28 51°14.97 2°53.518 17.930139 0.069095 0.401617 7.511264
2004-05-05 06:56:33 51°14.986 2°53.508 17.926095 0.069095 0.40161 7.511264
2004-05-05 06:56:38 51°15.004 2°53.5 17.915006 0.069095 0.401596 7.511264
2004-05-05 06:56:41 51°15.014 2°53.496 17.922677 0.069095 0.401596 7.511264
2004-05-05 06:56:48 51°15.038 2°53.487 17.922677 0.069095 0.401596 7.511264
2004-05-05 06:56:53 51°15.056 2°53.481 17.923469 0.069095 0.401589 7.511264
2004-05-05 06:56:58 51°15.073 2°53.475 17.918425 0.069095 0.401575 7.477554
2004-05-05 06:57:02 51°15.087 2°53.471 17.914589 0.069095 0.401561 7.511264
2004-05-05 06:57:08 51°15.107 2°53.464 17.91534 0.069095 0.401512 7.477554
2004-05-05 06:57:13 51°15.125 2°53.458 17.915923 0.069095 0.401434 7.477554
2004-05-05 06:57:17 51°15.138 2°53.453 17.915923 0.069095 0.401434 7.477554
2004-05-05 06:57:20 51°15.149 2°53.448 17.91855 0.069095 0.401364 7.477554
2004-05-05 06:57:28 51°15.176 2°53.433 17.928721 0.069095 0.401294 7.511264
2004-05-05 06:57:32 51°15.189 2°53.424 17.921426 0.069095 0.401259 7.544973
2004-05-05 06:57:38 51°15.209 2°53.411 17.937183 0.068991 0.400613 7.477554
2004-05-05 06:57:42 51°15.222 2°53.402 17.927221 0.069095 0.401217 7.544973
2004-05-05 06:57:48 51°15.242 2°53.388 17.927221 0.069095 0.401217 7.544973
2004-05-05 06:57:52 51°15.255 2°53.378 17.941975 0.069095 0.401238 7.443845
2004-05-05 06:57:58 51°15.275 2°53.363 17.943559 0.069095 0.401266 7.578683
2004-05-05 06:58:03 51°15.292 2°53.352 17.938225 0.069095 0.401273 7.544973
2004-05-05 06:58:08 51°15.309 2°53.341 17.9411 0.069095 0.401259 7.544973
2004-05-05 06:58:13 51°15.326 2°53.331 17.934932 0.069095 0.401238 7.511264
2004-05-05 06:58:17 51°15.34 2°53.324 17.934932 0.069095 0.401238 7.511264
2004-05-05 06:58:21 51°15.354 2°53.316 17.933015 0.069095 0.401238 7.578683
2004-05-05 06:58:28 51°15.378 2°53.304 17.950852 0.069095 0.401245 7.544973
2004-05-05 06:58:32 51°15.392 2°53.297 17.956352 0.069095 0.401245 7.544973
2004-05-05 06:58:38 51°15.413 2°53.285 17.95406 0.069095 0.401266 7.544973
2004-05-05 06:58:42 51°15.427 2°53.277 17.958269 0.069095 0.401301 7.511264
2004-05-05 06:58:48 51°15.448 2°53.265 17.958269 0.069095 0.401301 7.511264
2004-05-05 06:58:53 51°15.465 2°53.254 17.956185 0.069095 0.401308 7.511264
2004-05-05 06:58:58 51°15.483 2°53.243 17.962268 0.069095 0.401329 7.544973
2004-05-05 06:59:02 51°15.497 2°53.234 17.962102 0.069095 0.401329 7.544973
2004-05-05 06:59:08 51°15.517 2°53.22 17.970517 0.069095 0.401343 7.511264
2004-05-05 06:59:13 51°15.535 2°53.209 17.96631 0.069095 0.401343 7.544973
2004-05-05 06:59:18 51°15.552 2°53.198 17.96631 0.069095 0.401343 7.544973
2004-05-05 06:59:22 51°15.566 2°53.19 17.962352 0.069095 0.401322 7.511264
2004-05-05 06:59:28 51°15.586 2°53.177 17.961643 0.069095 0.401315 7.544973
2004-05-05 06:59:33 51°15.604 2°53.167 17.963727 0.069095 0.401315 7.544973
2004-05-05 06:59:38 51°15.621 2°53.157 17.963685 0.069095 0.401322 7.544973
2004-05-05 06:59:42 51°15.635 2°53.149 17.969601 0.069095 0.40135 7.544973
2004-05-05 06:59:48 51°15.656 2°53.137 17.969601 0.069095 0.40135 7.544973
2004-05-05 06:59:53 51°15.674 2°53.127 17.970601 0.069095 0.401357 7.511264
2004-05-05 06:59:58 51°15.691 2°53.116 17.972767 0.069095 0.401371 7.544973
2004-05-05 07:00:02 51°15.705 2°53.107 17.971392 0.069095 0.401364 7.477554
2004-05-05 07:00:08 51°15.726 2°53.094 17.979223 0.069095 0.401371 7.511264
2004-05-05 07:00:12 51°15.739 2°53.085 17.978224 0.069095 0.401378 7.511264
2004-05-05 07:00:18 51°15.76 2°53.071 17.978224 0.069095 0.401378 7.511264
2004-05-05 07:00:22 51°15.774 2°53.062 17.976974 0.069095 0.401385 7.477554
2004-05-05 07:00:28 51°15.795 2°53.048 17.982972 0.069095 0.401385 7.544973
2004-05-05 07:00:32 51°15.808 2°53.039 17.979598 0.069095 0.401371 7.544973
2004-05-05 07:00:38 51°15.829 2°53.025 17.986179 0.069095 0.401378 7.511264
2004-05-05 07:00:42 51°15.843 2°53.016 17.986554 0.069199 0.401996 7.511264
2004-05-05 07:00:48 51°15.863 2°53.003 17.986554 0.069199 0.401996 7.511264
2004-05-05 07:00:53 51°15.88 2°52.992 17.991343 0.069199 0.402017 7.511264
2004-05-05 07:00:58 51°15.897 2°52.98 17.98747 0.069095 0.401413 7.511264
2004-05-05 07:01:02 51°15.911 2°52.971 17.992926 0.069095 0.40142 7.578683
2004-05-05 07:01:08 51°15.932 2°52.957 17.997631 0.069095 0.401427 7.511264
2004-05-05 07:01:13 51°15.949 2°52.946 17.997423 0.069095 0.401413 7.511264
2004-05-05 07:01:18 51°15.966 2°52.934 17.997423 0.069095 0.401413 7.511264
2004-05-05 07:01:20 51°15.973 2°52.93 17.996757 0.069095 0.401406 7.511264
2004-05-05 07:01:28 51°16 2°52.911 18.000505 0.069095 0.40142 7.511264
2004-05-05 07:01:33 51°16.017 2°52.9 17.999297 0.069095 0.40142 7.511264
2004-05-05 07:01:37 51°16.031 2°52.89 18.004002 0.069199 0.402045 7.511264
2004-05-05 07:01:41 51°16.045 2°52.881 18.006501 0.069095 0.401427 7.511264
2004-05-05 07:01:48 51°16.069 2°52.866 18.006501 0.069095 0.401427 7.511264
2004-05-05 07:01:53 51°16.086 2°52.854 18.004918 0.069095 0.401434 7.511264
2004-05-05 07:01:58 51°16.103 2°52.843 18.002753 0.069095 0.40142 7.511264
2004-05-05 07:02:02 51°16.117 2°52.834 18.015202 0.069095 0.401441 7.511264
2004-05-05 07:02:08 51°16.137 2°52.82 18.013537 0.069199 0.402067 7.410136
2004-05-05 07:02:13 51°16.155 2°52.808 18.01566 0.069095 0.401469 7.477554
2004-05-05 07:02:17 51°16.169 2°52.8 18.01566 0.069095 0.401469 7.477554
2004-05-05 07:02:21 51°16.182 2°52.791 18.009665 0.069095 0.401455 7.511264
2004-05-05 07:02:28 51°16.206 2°52.776 18.013662 0.069199 0.402067 7.544973
2004-05-05 07:02:33 51°16.224 2°52.765 18.009998 0.069199 0.40206 7.544973
2004-05-05 07:02:38 51°16.241 2°52.755 18.013329 0.069095 0.401441 7.443845
2004-05-05 07:02:42 51°16.255 2°52.748 18.013662 0.069095 0.401434 7.544973
2004-05-05 07:02:48 51°16.276 2°52.735 18.013662 0.069095 0.401434 7.544973
2004-05-05 07:02:53 51°16.293 2°52.726 18.015951 0.069095 0.401434 7.544973
2004-05-05 07:02:58 51°16.311 2°52.716 18.015493 0.069095 0.401434 7.477554
2004-05-05 07:03:02 51°16.324 2°52.708 18.019906 0.069095 0.401448 7.511264
2004-05-05 07:03:08 51°16.345 2°52.696 18.017658 0.069199 0.40206 7.511264
2004-05-05 07:03:13 51°16.362 2°52.686 18.016909 0.069199 0.402045 7.477554
2004-05-05 07:03:18 51°16.38 2°52.675 18.016909 0.069199 0.402045 7.477554
2004-05-05 07:03:22 51°16.393 2°52.668 18.022029 0.069095 0.401413 7.511264
2004-05-05 07:03:28 51°16.414 2°52.656 18.020281 0.069199 0.402017 7.511264
2004-05-05 07:03:33 51°16.432 2°52.646 18.017242 0.069095 0.401371 7.511264
2004-05-05 07:03:38 51°16.449 2°52.636 18.023611 0.069199 0.401989 7.511264
2004-05-05 07:03:42 51°16.463 2°52.629 18.02103 0.069095 0.401357 7.511264
2004-05-05 07:03:48 51°16.484 2°52.618 18.02103 0.069095 0.401357 7.511264
2004-05-05 07:03:53 51°16.501 2°52.609 18.025776 0.069199 0.401982 7.477554
2004-05-05 07:03:58 51°16.519 2°52.6 18.02332 0.069095 0.401343 7.477554
2004-05-05 07:04:02 51°16.533 2°52.592 18.022196 0.069095 0.401322 7.511264
2004-05-05 07:04:08 51°16.553 2°52.581 18.023195 0.069095 0.401308 7.544973
2004-05-05 07:04:13 51°16.571 2°52.572 18.024818 0.069199 0.401926 7.477554
2004-05-05 07:04:18 51°16.588 2°52.564 18.024818 0.069199 0.401926 7.477554
2004-05-05 07:04:22 51°16.602 2°52.557 18.025609 0.069199 0.401912 7.511264
2004-05-05 07:04:28 51°16.623 2°52.547 18.028564 0.069095 0.401287 7.511264
2004-05-05 07:04:33 51°16.64 2°52.539 18.032935 0.069095 0.401294 7.511264
2004-05-05 07:04:38 51°16.658 2°52.53 18.036181 0.069095 0.401301 7.511264
2004-05-05 07:04:42 51°16.671 2°52.523 18.040468 0.069095 0.401308 7.477554
2004-05-05 07:04:48 51°16.692 2°52.512 18.040468 0.069095 0.401308 7.477554
2004-05-05 07:04:53 51°16.708 2°52.503 18.039178 0.069095 0.401308 7.511264
2004-05-05 07:04:58 51°16.725 2°52.494 18.036015 0.069095 0.401294 7.477554
2004-05-05 07:05:01 51°16.735 2°52.488 18.036181 0.068991 0.400655 7.511264
2004-05-05 07:05:08 51°16.758 2°52.476 18.035723 0.069095 0.40128 7.511264
2004-05-05 07:05:13 51°16.774 2°52.468 18.040509 0.068471 0.397505 7.511264
2004-05-05 07:05:18 51°16.79 2°52.459 18.040509 0.068471 0.397505 7.511264
2004-05-05 07:05:22 51°16.804 2°52.453 18.038928 0.068679 0.39874 7.477554
2004-05-05 07:05:28 51°16.824 2°52.442 18.042715 0.068991 0.400613 7.544973
2004-05-05 07:05:33 51°16.841 2°52.434 18.04388 0.068783 0.399371 7.511264
2004-05-05 07:05:38 51°16.858 2°52.424 18.045253 0.067119 0.389378 7.477554
2004-05-05 07:05:42 51°16.871 2°52.418 18.048416 0.06608 0.383136 7.511264
2004-05-05 07:05:48 51°16.891 2°52.407 18.048416 0.06608 0.383136 7.511264
2004-05-05 07:05:53 51°16.908 2°52.398 18.049331 0.068783 0.399371 7.511264
2004-05-05 07:05:58 51°16.924 2°52.39 18.051745 0.068991 0.40062 7.477554
2004-05-05 07:06:02 51°16.938 2°52.384 18.050538 0.064936 0.376284 7.511264
2004-05-05 07:06:08 51°16.957 2°52.374 18.047792 0.061506 0.355756 7.511264
2004-05-05 07:06:13 51°16.974 2°52.367 18.048041 0.060466 0.349539 7.477554
2004-05-05 07:06:18 51°16.991 2°52.359 18.048041 0.060466 0.349539 7.477554
2004-05-05 07:06:22 51°17.004 2°52.354 18.053451 0.060986 0.352629 7.477554
2004-05-05 07:06:28 51°17.025 2°52.344 18.056863 0.060674 0.350774 7.544973
2004-05-05 07:06:33 51°17.042 2°52.336 18.058069 0.061298 0.354496 7.511264
2004-05-05 07:06:38 51°17.058 2°52.327 18.063727 0.063377 0.366926 7.511264
2004-05-05 07:06:41 51°17.069 2°52.322 18.067471 0.059843 0.345832 7.477554
2004-05-05 07:06:48 51°17.092 2°52.308 18.067471 0.059843 0.345832 7.477554
2004-05-05 07:06:53 51°17.108 2°52.298 18.071548 0.064313 0.372543 7.477554
2004-05-05 07:06:56 51°17.118 2°52.292 18.071756 0.058699 0.339023 7.443845
2004-05-05 07:07:01 51°17.135 2°52.282 18.067929 0.063585 0.368195 7.544973
2004-05-05 07:07:08 51°17.159 2°52.267 18.070258 0.05714 0.329725 7.477554
2004-05-05 07:07:13 51°17.175 2°52.258 18.064642 0.058076 0.33528 7.511264
2004-05-05 07:07:18 51°17.192 2°52.249 18.064642 0.058076 0.33528 7.511264
2004-05-05 07:07:22 51°17.206 2°52.242 18.067638 0.05423 0.312411 7.511264
2004-05-05 07:07:28 51°17.226 2°52.232 18.070175 0.055893 0.322288 7.511264
2004-05-05 07:07:33 51°17.243 2°52.224 18.073628 0.059219 0.342078 7.511264
2004-05-05 07:07:37 51°17.257 2°52.218 18.076789 0.053294 0.306871 7.477554
2004-05-05 07:07:42 51°17.274 2°52.21 18.07708 0.052983 0.305029 7.511264
2004-05-05 07:07:48 51°17.295 2°52.199 18.07708 0.052983 0.305029 7.511264
2004-05-05 07:07:53 51°17.312 2°52.19 18.081655 0.050696 0.291494 7.511264
2004-05-05 07:07:57 51°17.325 2°52.181 18.083777 0.048513 0.278604 7.544973
2004-05-05 07:08:02 51°17.341 2°52.169 18.089682 0.054646 0.314894 7.477554
2004-05-05 07:08:08 51°17.361 2°52.155 18.087686 0.047682 0.273709 7.477554
2004-05-05 07:08:12 51°17.374 2°52.144 18.09172 0.048825 0.280448 7.544973
2004-05-05 07:08:18 51°17.392 2°52.127 18.09172 0.048825 0.280448 7.544973
2004-05-05 07:08:22 51°17.405 2°52.115 18.095837 0.055373 0.319218 7.511264
2004-05-05 07:08:28 51°17.423 2°52.097 18.092385 0.045499 0.260867 7.477554
2004-05-05 07:08:32 51°17.435 2°52.085 18.090805 0.046331 0.265751 7.544973
2004-05-05 07:08:37 51°17.45 2°52.069 18.096086 0.051839 0.29826 7.511264
2004-05-05 07:08:42 51°17.466 2°52.053 18.093383 0.043629 0.249889 7.477554
2004-05-05 07:08:48 51°17.484 2°52.034 18.093383 0.043629 0.249889 7.477554
2004-05-05 07:08:53 51°17.499 2°52.019 15.126958 0.222758 1.380213 5.792084
2004-05-05 07:08:58 51°17.514 2°52.003 13.919696 0.283785 1.780128 9.500118
2004-05-05 07:09:01 51°17.523 2°51.994 13.024951 0.447119 2.79944 34.377657
2004-05-05 07:09:08 51°17.545 2°51.973 12.829021 1.61648 10.969259 56.558443
2004-05-05 07:09:13 51°17.56 2°51.958 12.574039 2.46911 17.910499 68.087059
2004-05-05 07:09:18 51°17.575 2°51.942 12.574039 2.46911 17.910499 68.087059
2004-05-05 07:09:22 51°17.587 2°51.931 12.47731 3.322614 25.334688 67.98593
2004-05-05 07:09:28 51°17.605 2°51.912 12.423761 3.863158 31.039174 68.01964
2004-05-05 07:09:32 51°17.618 2°51.901 12.351709 3.931055 32.400974 68.087059
2004-05-05 07:09:38 51°17.636 2°51.882 12.370849 3.96079 33.174913 68.120768
2004-05-05 07:09:42 51°17.648 2°51.87 12.299191 3.95352 33.377723 68.390443
2004-05-05 07:09:48 51°17.667 2°51.852 12.299191 3.95352 33.377723 68.390443
2004-05-05 07:09:53 51°17.682 2°51.836 12.285648 3.936973 33.436292 66.30046
2004-05-05 07:09:58 51°17.697 2°51.821 12.271875 3.931598 33.505261 63.334033
2004-05-05 07:10:02 51°17.709 2°51.808 12.291355 3.936659 33.643654 61.075503
2004-05-05 07:10:08 51°17.728 2°51.79 12.273144 3.919477 33.540371 58.749554
2004-05-05 07:10:13 51°17.743 2°51.775 12.243006 3.904193 33.454272 56.423606
2004-05-05 07:10:16 51°17.752 2°51.767 12.243006 3.904193 33.454272 56.423606
2004-05-05 07:10:21 51°17.768 2°51.752 12.249579 3.931391 33.748615 54.974101
2004-05-05 07:10:28 51°17.789 2°51.731 12.230585 3.926542 33.723257 52.715571
2004-05-05 07:10:33 51°17.805 2°51.716 12.198296 3.923485 33.705915 53.861691
2004-05-05 07:10:38 51°17.82 2°51.701 12.21993 3.921482 33.701477 54.198785
2004-05-05 07:10:42 51°17.832 2°51.688 12.195212 3.920007 33.709123 55.176358
2004-05-05 07:10:48 51°17.85 2°51.669 12.195212 3.920007 33.709123 55.176358
2004-05-05 07:10:52 51°17.862 2°51.656 12.151332 3.916107 33.676644 56.221349
2004-05-05 07:10:58 51°17.881 2°51.637 12.158685 3.914842 33.6849 57.906819
2004-05-05 07:11:01 51°17.89 2°51.628 12.178108 3.912101 33.676891 59.693418
2004-05-05 07:11:08 51°17.912 2°51.606 12.157142 3.909782 33.667999 61.749691
2004-05-05 07:11:12 51°17.925 2°51.595 12.132945 3.907253 33.659189 62.862101
2004-05-05 07:11:18 51°17.944 2°51.577 12.132945 3.907253 33.659189 62.862101
2004-05-05 07:11:22 51°17.957 2°51.566 12.108785 3.905356 33.658565 63.300324
2004-05-05 07:11:28 51°17.976 2°51.548 12.111374 3.902826 33.649044 64.345315
2004-05-05 07:11:32 51°17.989 2°51.536 12.096157 3.901245 33.642298 64.952084
2004-05-05 07:11:36 51°18.002 2°51.524 12.078846 3.899558 33.632422 65.828529
2004-05-05 07:11:42 51°18.021 2°51.505 12.068303 3.89861 33.639509 66.266751
2004-05-05 07:11:47 51°18.036 2°51.489 12.068303 3.89861 33.639509 66.266751
2004-05-05 07:11:53 51°18.056 2°51.47 12.050348 3.895869 33.623716 67.278033
2004-05-05 07:11:58 51°18.071 2°51.454 12.053666 3.895026 33.627589 68.356734
2004-05-05 07:12:02 51°18.084 2°51.441 12.05453 3.893551 33.625375 68.356734
2004-05-05 07:12:08 51°18.103 2°51.422 12.043392 3.892707 33.631371 68.323024
2004-05-05 07:12:13 51°18.12 2°51.407 12.042892 3.88691 33.58823 68.120768
2004-05-05 07:12:17 51°18.132 2°51.394 12.042892 3.88691 33.58823 68.120768
2004-05-05 07:12:22 51°18.149 2°51.378 12.043119 3.239986 27.448608 68.154477
2004-05-05 07:12:25 51°18.158 2°51.369 12.017789 3.780559 32.585859 68.120768
2004-05-05 07:12:33 51°18.184 2°51.343 12.001868 3.797106 32.751582 68.120768
2004-05-05 07:12:38 51°18.2 2°51.327 11.990493 3.706259 31.885389 68.154477
2004-05-05 07:12:42 51°18.213 2°51.315 11.981802 3.701832 31.849729 68.087059
2004-05-05 07:12:48 51°18.232 2°51.296 11.981802 3.701832 31.849729 68.087059
2004-05-05 07:12:52 51°18.245 2°51.283 11.945977 3.756634 32.380205 68.053349
2004-05-05 07:12:58 51°18.265 2°51.264 11.934547 3.758742 32.412692 68.120768
2004-05-05 07:13:02 51°18.277 2°51.251 11.922751 3.715217 32.008111 68.087059
2004-05-05 07:13:08 51°18.296 2°51.231 11.918924 3.738719 32.246353 68.053349
2004-05-05 07:13:13 51°18.312 2°51.215 11.884524 3.697091 31.861266 68.053349
2004-05-05 07:13:17 51°18.325 2°51.203 11.884524 3.697091 31.861266 68.053349
2004-05-05 07:13:22 51°18.341 2°51.187 11.873083 3.75927 32.475813 68.053349
2004-05-05 07:13:28 51°18.36 2°51.168 11.87012 3.483722 29.849994 68.053349
2004-05-05 07:13:32 51°18.373 2°51.155 11.851519 3.703309 31.961251 68.01964
2004-05-05 07:13:37 51°18.389 2°51.139 11.83948 3.699621 31.939316 67.98593
2004-05-05 07:13:42 51°18.405 2°51.123 11.831088 2.720844 22.753712 68.01964
2004-05-05 07:13:48 51°18.424 2°51.104 11.831088 2.720844 22.753712 68.01964
2004-05-05 07:13:52 51°18.437 2°51.091 11.827028 2.914779 24.555071 67.98593
2004-05-05 07:13:58 51°18.456 2°51.071 11.815395 3.715008 32.131853 67.98593
2004-05-05 07:14:02 51°18.468 2°51.058 11.815714 2.990879 25.28196 67.98593
2004-05-05 07:14:08 51°18.487 2°51.039 11.823059 3.668218 31.702176 68.01964
2004-05-05 07:14:13 51°18.504 2°51.023 11.806498 3.717748 32.186789 68.01964
2004-05-05 07:14:18 51°18.52 2°51.008 11.806498 3.717748 32.186789 68.01964
2004-05-05 07:14:22 51°18.533 2°50.995 11.802163 3.661158 31.647725 67.98593
2004-05-05 07:14:28 51°18.552 2°50.976 11.806954 3.703311 32.057939 68.01964
2004-05-05 07:14:33 51°18.567 2°50.959 11.800794 3.703205 32.060994 68.01964
2004-05-05 07:14:38 51°18.583 2°50.943 11.798695 3.621958 31.285215 68.01964
2004-05-05 07:14:42 51°18.596 2°50.93 11.798193 3.646511 31.52634 68.01964
2004-05-05 07:14:48 51°18.615 2°50.91 11.798193 3.646511 31.52634 68.01964
2004-05-05 07:14:53 51°18.631 2°50.895 11.810422 3.514698 30.268293 67.98593
2004-05-05 07:14:58 51°18.647 2°50.878 11.807456 3.83421 33.346622 67.952221
2004-05-05 07:15:02 51°18.66 2°50.866 11.804901 3.834316 33.349764 67.98593
2004-05-05 07:15:07 51°18.676 2°50.85 11.814118 3.834105 33.350548 67.98593
2004-05-05 07:15:13 51°18.695 2°50.832 11.823789 3.834737 33.355264 67.98593
2004-05-05 07:15:18 51°18.711 2°50.816 11.823789 3.834737 33.355264 67.98593
2004-05-05 07:15:22 51°18.724 2°50.803 11.820185 3.835159 33.356522 67.952221
2004-05-05 07:15:28 51°18.743 2°50.783 11.816718 3.832419 33.330672 67.98593
2004-05-05 07:15:33 51°18.759 2°50.766 11.823424 3.836213 33.365322 67.98593
2004-05-05 07:15:38 51°18.774 2°50.75 11.814985 3.837162 33.372394 68.01964
2004-05-05 07:15:42 51°18.787 2°50.736 11.828853 3.838005 33.377737 68.01964
2004-05-05 07:15:48 51°18.805 2°50.715 11.828853 3.838005 33.377737 68.01964
2004-05-05 07:15:53 51°18.821 2°50.698 11.834189 3.839164 33.388265 67.98593
2004-05-05 07:15:58 51°18.837 2°50.681 11.831453 3.840324 33.398085 67.98593
2004-05-05 07:16:02 51°18.849 2°50.669 11.83989 3.841905 33.413407 68.01964
2004-05-05 07:16:08 51°18.868 2°50.649 11.849376 3.842748 33.422995 68.01964
2004-05-05 07:16:12 51°18.881 2°50.636 11.840711 3.843275 33.423146 68.01964
2004-05-05 07:16:17 51°18.897 2°50.621 11.840711 3.843275 33.423146 68.01964
2004-05-05 07:16:22 51°18.913 2°50.604 11.846503 3.84454 33.432571 67.952221
2004-05-05 07:16:28 51°18.932 2°50.585 11.851108 3.84591 33.443724 67.98593
2004-05-05 07:16:33 51°18.948 2°50.569 11.844542 3.846964 33.451104 68.01964
2004-05-05 07:16:38 51°18.964 2°50.552 11.846412 3.847386 33.450939 67.98593
2004-05-05 07:16:42 51°18.977 2°50.54 11.847552 3.848861 33.465237 67.98593
2004-05-05 07:16:48 51°18.996 2°50.52 11.847552 3.848861 33.465237 67.98593
2004-05-05 07:16:53 51°19.012 2°50.504 11.844542 3.849388 33.467509 68.053349
2004-05-05 07:16:58 51°19.028 2°50.487 11.843812 3.84981 33.470177 68.053349
2004-05-05 07:17:02 51°19.041 2°50.475 11.846913 3.851075 33.48385 68.01964
2004-05-05 07:17:08 51°19.06 2°50.456 11.844816 3.851602 33.489665 68.01964
2004-05-05 07:17:13 51°19.076 2°50.439 11.836242 3.851813 33.493836 68.01964
2004-05-05 07:17:18 51°19.092 2°50.423 11.836242 3.851813 33.493836 68.01964
2004-05-05 07:17:22 51°19.104 2°50.412 11.838112 3.852445 33.498546 68.053349
2004-05-05 07:17:28 51°19.124 2°50.392 11.851884 3.852445 33.499255 68.053349
2004-05-05 07:17:32 51°19.137 2°50.379 11.847232 3.853077 33.506093 68.087059
2004-05-05 07:17:38 51°19.155 2°50.36 11.853844 3.853183 33.508534 68.053349
2004-05-05 07:17:42 51°19.168 2°50.347 11.850242 3.853815 33.517503 68.01964
2004-05-05 07:17:48 51°19.187 2°50.327 11.850242 3.853815 33.517503 68.01964
2004-05-05 07:17:53 51°19.203 2°50.312 11.841714 3.85371 33.517191 68.053349
2004-05-05 07:17:58 51°19.219 2°50.295 11.836059 3.854026 33.517416 68.053349
2004-05-05 07:18:02 51°19.232 2°50.283 11.838385 3.854237 33.51733 68.053349
2004-05-05 07:18:08 51°19.251 2°50.264 11.842581 3.855186 33.525814 68.120768
2004-05-05 07:18:13 51°19.267 2°50.249 11.843356 3.856029 33.534697 68.120768
2004-05-05 07:18:18 51°19.283 2°50.233 11.843356 3.856029 33.534697 68.120768
2004-05-05 07:18:22 51°19.296 2°50.22 11.838659 3.856661 33.543668 68.053349
2004-05-05 07:18:28 51°19.314 2°50.2 11.834691 3.856767 33.548243 68.053349
2004-05-05 07:18:33 51°19.329 2°50.18 11.823287 3.857294 33.555484 68.053349
2004-05-05 07:18:38 51°19.343 2°50.16 11.815897 3.858032 33.560505 68.120768
2004-05-05 07:18:42 51°19.354 2°50.144 11.815851 3.858559 33.564904 68.120768
2004-05-05 07:18:48 51°19.371 2°50.119 11.815851 3.858559 33.564904 68.120768
2004-05-05 07:18:53 51°19.384 2°50.098 11.819729 3.858875 33.570814 68.120768
2004-05-05 07:18:58 51°19.398 2°50.076 11.816125 3.859824 33.584993 68.053349
2004-05-05 07:19:02 51°19.409 2°50.059 11.810696 3.860035 33.595578 68.120768
2004-05-05 07:19:08 51°19.425 2°50.034 11.797737 3.860772 33.606297 68.087059
2004-05-05 07:19:12 51°19.436 2°50.017 11.785186 3.861194 33.613238 68.120768
2004-05-05 07:19:18 51°19.453 2°49.991 11.785186 3.861194 33.613238 68.120768
2004-05-05 07:19:22 51°19.464 2°49.973 11.789659 3.861089 33.61364 68.120768
2004-05-05 07:19:28 51°19.481 2°49.947 11.755876 3.856767 33.573133 68.087059
2004-05-05 07:19:33 51°19.496 2°49.925 11.739754 3.862248 33.629168 68.120768
2004-05-05 07:19:38 51°19.51 2°49.903 11.749254 3.862248 33.63844 68.087059
2004-05-05 07:19:41 51°19.518 2°49.89 11.719837 3.862354 33.647313 68.087059
2004-05-05 07:19:48 51°19.537 2°49.857 11.719837 3.862354 33.647313 68.087059
2004-05-05 07:19:53 51°19.549 2°49.833 11.719426 3.862354 33.656595 68.120768
2004-05-05 07:19:58 51°19.561 2°49.809 11.705535 3.8613 33.660644 68.087059
2004-05-05 07:20:02 51°19.571 2°49.789 11.70037 3.860352 33.662147 68.120768
2004-05-05 07:20:08 51°19.585 2°49.759 11.689264 3.859192 33.657312 68.087059
2004-05-05 07:20:13 51°19.597 2°49.734 11.694155 3.855925 33.639843 68.087059
2004-05-05 07:20:18 51°19.608 2°49.708 11.694155 3.855925 33.639843 68.087059
2004-05-05 07:20:21 51°19.616 2°49.693 11.698314 3.857822 33.665448 68.120768
2004-05-05 07:20:28 51°19.632 2°49.657 11.688029 3.856558 33.664596 68.120768
2004-05-05 07:20:33 51°19.643 2°49.632 11.684281 3.855398 33.66119 68.154477
2004-05-05 07:20:38 51°19.654 2°49.606 11.680304 3.854766 33.658616 68.154477
2004-05-05 07:20:42 51°19.663 2°49.586 11.674909 3.85445 33.659836 68.120768
2004-05-05 07:20:46 51°19.67 2°49.563 11.674909 3.85445 33.659836 68.120768
2004-05-05 07:20:53 51°19.682 2°49.523 11.663798 3.854028 33.655732 68.154477
2004-05-05 07:20:58 51°19.689 2°49.494 11.658768 3.854028 33.65788 68.188187
2004-05-05 07:21:02 51°19.695 2°49.47 11.659957 3.853185 33.652537 68.154477
2004-05-05 07:21:08 51°19.704 2°49.434 11.658814 3.852869 33.653757 68.120768
2004-05-05 07:21:12 51°19.709 2°49.41 11.664713 3.85192 33.655267 68.154477
2004-05-05 07:21:16 51°19.714 2°49.386 11.664713 3.85192 33.655267 68.154477
2004-05-05 07:21:22 51°19.721 2°49.35 11.668599 3.850972 33.650328 68.120768
2004-05-05 07:21:28 51°19.729 2°49.313 11.663066 3.851604 33.662222 68.120768
2004-05-05 07:21:32 51°19.734 2°49.289 11.668554 3.851077 33.658523 68.154477
2004-05-05 07:21:37 51°19.74 2°49.258 11.666176 3.850972 33.657496 68.087059
2004-05-05 07:21:42 51°19.745 2°49.227 11.658722 3.851077 33.658523 68.087059
2004-05-05 07:21:46 51°19.748 2°49.202 11.658722 3.851077 33.658523 68.087059
2004-05-05 07:21:53 51°19.754 2°49.158 11.667685 3.850761 33.654725 68.154477
2004-05-05 07:21:56 51°19.756 2°49.139 11.666679 3.850761 33.654009 68.154477
2004-05-05 07:22:02 51°19.76 2°49.1 11.672303 3.85171 33.661815 68.154477
2004-05-05 07:22:08 51°19.764 2°49.062 11.66357 3.850972 33.653912 68.154477
2004-05-05 07:22:12 51°19.766 2°49.036 11.66357 3.851183 33.659549 68.154477
2004-05-05 07:22:18 51°19.77 2°48.997 11.66357 3.851183 33.659549 68.154477
2004-05-05 07:22:22 51°19.772 2°48.972 11.663752 3.851077 33.657089 68.087059
2004-05-05 07:22:26 51°19.775 2°48.946 11.669788 3.850761 33.654725 68.154477
2004-05-05 07:22:33 51°19.779 2°48.901 11.683184 3.850761 33.654009 68.053349
2004-05-05 07:22:38 51°19.783 2°48.87 11.665033 3.850445 33.653796 68.087059
2004-05-05 07:22:42 51°19.785 2°48.844 11.665947 3.850234 33.651742 68.087059
2004-05-05 07:22:48 51°19.789 2°48.805 11.665947 3.850234 33.651742 68.087059
2004-05-05 07:22:53 51°19.792 2°48.773 11.661695 3.850023 33.648255 68.120768
2004-05-05 07:22:58 51°19.795 2°48.741 11.651496 3.849601 33.641282 68.120768
2004-05-05 07:23:02 51°19.798 2°48.715 11.655201 3.84918 33.633594 68.120768
2004-05-05 07:23:08 51°19.802 2°48.677 11.644452 3.849391 33.638513 68.087059
2004-05-05 07:23:13 51°19.806 2°48.645 11.648249 3.848442 33.633572 68.120768
2004-05-05 07:23:16 51°19.807 2°48.625 11.648249 3.848442 33.633572 68.120768
2004-05-05 07:23:21 51°19.811 2°48.593 11.650993 3.848547 33.638898 68.120768
2004-05-05 07:23:28 51°19.816 2°48.548 11.638597 3.847177 33.627699 68.120768
2004-05-05 07:23:33 51°19.819 2°48.516 11.634023 3.84665 33.623998 68.087059
2004-05-05 07:23:38 51°19.822 2°48.483 11.624735 3.84528 33.61638 68.120768
2004-05-05 07:23:41 51°19.824 2°48.464 11.627846 3.844437 33.608881 68.087059
2004-05-05 07:23:48 51°19.829 2°48.419 11.627846 3.844437 33.608881 68.087059
2004-05-05 07:23:52 51°19.832 2°48.393 11.629402 3.843699 33.603841 68.087059
2004-05-05 07:23:57 51°19.836 2°48.36 11.625101 3.84254 33.596841 68.120768
2004-05-05 07:24:02 51°19.839 2°48.328 11.617917 3.841275 33.592393 68.120768
2004-05-05 07:24:08 51°19.844 2°48.289 11.62112 3.839588 33.579538 68.120768
2004-05-05 07:24:13 51°19.847 2°48.257 11.614027 3.839061 33.575118 68.120768
2004-05-05 07:24:18 51°19.85 2°48.224 11.614027 3.839061 33.575118 68.120768
2004-05-05 07:24:22 51°19.853 2°48.198 11.607803 3.838218 33.567616 68.053349
2004-05-05 07:24:28 51°19.857 2°48.159 11.60817 3.837164 33.558059 68.087059
2004-05-05 07:24:32 51°19.86 2°48.133 11.600892 3.836953 33.558868 68.053349
2004-05-05 07:24:38 51°19.865 2°48.094 11.594759 3.835689 33.550118 68.087059
2004-05-05 07:24:42 51°19.868 2°48.068 11.587938 3.83474 33.546596 68.087059
2004-05-05 07:24:48 51°19.872 2°48.029 11.587938 3.83474 33.546596 68.087059
2004-05-05 07:24:53 51°19.875 2°47.997 11.579697 3.833475 33.537844 68.01964
2004-05-05 07:24:58 51°19.879 2°47.964 11.573698 3.832843 33.534541 68.087059
2004-05-05 07:25:02 51°19.882 2°47.939 11.565044 3.831684 33.526815 68.01964
2004-05-05 07:25:08 51°19.887 2°47.899 11.555242 3.830524 33.522665 68.087059
2004-05-05 07:25:13 51°19.89 2°47.867 11.537972 3.829049 33.514714 68.087059
2004-05-05 07:25:17 51°19.893 2°47.841 11.537972 3.829049 33.514714 68.087059
2004-05-05 07:25:22 51°19.897 2°47.808 11.544798 3.8281 33.511902 68.01964
2004-05-05 07:25:28 51°19.902 2°47.769 11.533574 3.826308 33.498001 68.01964
2004-05-05 07:25:32 51°19.905 2°47.744 11.530321 3.824833 33.492907 68.01964
2004-05-05 07:25:38 51°19.91 2°47.705 11.501448 3.823252 33.486066 68.087059
2004-05-05 07:25:42 51°19.913 2°47.679 11.495763 3.821776 33.478821 68.087059
2004-05-05 07:25:48 51°19.917 2°47.639 11.495763 3.821776 33.478821 68.087059
2004-05-05 07:25:53 51°19.921 2°47.607 11.492279 3.820301 33.470858 68.01964
2004-05-05 07:25:57 51°19.924 2°47.581 11.484484 3.818825 33.462178 68.01964
2004-05-05 07:26:02 51°19.928 2°47.548 11.481917 3.817034 33.454701 68.01964
2004-05-05 07:26:08 51°19.932 2°47.509 11.471232 3.815242 33.447938 68.053349
2004-05-05 07:26:13 51°19.936 2°47.477 11.471186 3.813766 33.441397 68.053349
2004-05-05 07:26:18 51°19.94 2°47.444 11.471186 3.813766 33.441397 68.053349
2004-05-05 07:26:22 51°19.944 2°47.418 11.460729 3.812607 33.437944 68.087059
2004-05-05 07:26:28 51°19.948 2°47.379 11.449811 3.811975 33.436776 68.053349
2004-05-05 07:26:32 51°19.951 2°47.353 11.447792 3.810078 33.423963 67.98593
2004-05-05 07:26:38 51°19.955 2°47.313 11.439304 3.808391 33.413923 68.01964
2004-05-05 07:26:42 51°19.959 2°47.287 11.437056 3.80797 33.414097 68.053349
2004-05-05 07:26:48 51°19.963 2°47.248 11.437056 3.80797 33.414097 68.053349
2004-05-05 07:26:52 51°19.966 2°47.222 11.429485 3.806916 33.409521 68.087059
2004-05-05 07:26:58 51°19.971 2°47.182 11.426823 3.80523 33.400908 68.053349
2004-05-05 07:27:01 51°19.973 2°47.162 11.422417 3.80407 33.396014 68.053349
2004-05-05 07:27:08 51°19.979 2°47.116 11.415532 3.803227 33.392779 68.01964
2004-05-05 07:27:12 51°19.982 2°47.09 11.41186 3.802173 33.386766 68.01964
2004-05-05 07:27:18 51°19.986 2°47.05 11.41186 3.802173 33.386766 68.01964
2004-05-05 07:27:22 51°19.989 2°47.024 11.405801 3.801436 33.383845 68.053349
2004-05-05 07:27:28 51°19.994 2°46.985 11.401899 3.800171 33.375768 68.053349
2004-05-05 07:27:33 51°19.998 2°46.952 11.405342 3.799644 33.375624 68.01964
2004-05-05 07:27:38 51°20.003 2°46.92 11.392441 3.798168 33.364766 68.01964
2004-05-05 07:27:42 51°20.006 2°46.893 11.385231 3.79722 33.35978 68.01964
2004-05-05 07:27:48 51°20.011 2°46.854 11.385231 3.79722 33.35978 68.01964
2004-05-05 07:27:53 51°20.015 2°46.821 11.385966 3.79585 33.352098 68.01964
2004-05-05 07:27:58 51°20.019 2°46.789 11.382568 3.79469 33.34433 67.98593
2004-05-05 07:28:01 51°20.021 2°46.769 11.376138 3.793636 33.339024 67.98593
2004-05-05 07:28:08 51°20.027 2°46.723 11.375266 3.792583 33.332286 68.053349
2004-05-05 07:28:13 51°20.031 2°46.691 11.373337 3.792161 33.331738 68.053349
2004-05-05 07:28:18 51°20.035 2°46.658 11.373337 3.792161 33.331738 68.053349
2004-05-05 07:28:22 51°20.039 2°46.632 11.373612 3.791634 33.329442 68.053349
2004-05-05 07:28:28 51°20.043 2°46.593 11.374393 3.791002 33.328261 68.01964
2004-05-05 07:28:32 51°20.046 2°46.567 11.378756 3.790686 33.328029 68.01964
2004-05-05 07:28:38 51°20.05 2°46.528 11.377654 3.790264 33.326048 67.98593
2004-05-05 07:28:42 51°20.054 2°46.502 11.384129 3.790264 33.328196 68.01964
2004-05-05 07:28:48 51°20.058 2°46.463 11.384129 3.790264 33.328196 68.01964
2004-05-05 07:28:53 51°20.063 2°46.431 11.3822 3.790896 33.335106 68.01964
2004-05-05 07:28:58 51°20.068 2°46.399 11.37995 3.791318 33.338519 68.053349
2004-05-05 07:29:02 51°20.072 2°46.374 11.381558 3.79195 33.343996 68.053349
2004-05-05 07:29:08 51°20.08 2°46.336 11.378159 3.792477 33.347725 68.01964
2004-05-05 07:29:13 51°20.087 2°46.305 11.380272 3.793321 33.355983 68.01964
2004-05-05 07:29:17 51°20.092 2°46.28 11.380272 3.793321 33.355983 68.01964
2004-05-05 07:29:23 51°20.1 2°46.243 11.381971 3.794269 33.363124 68.053349
2004-05-05 07:29:28 51°20.107 2°46.212 11.389272 3.795007 33.37035 68.053349
2004-05-05 07:29:32 51°20.113 2°46.188 11.383486 3.795534 33.374794 68.01964
2004-05-05 07:29:38 51°20.122 2°46.151 11.381787 3.79585 33.380043 68.087059
2004-05-05 07:29:42 51°20.127 2°46.127 11.387068 3.796377 33.385205 67.98593
2004-05-05 07:29:48 51°20.136 2°46.09 11.387068 3.796377 33.385205 67.98593
2004-05-05 07:29:52 51°20.142 2°46.065 11.378802 3.797853 33.398224 67.98593
2004-05-05 07:29:58 51°20.15 2°46.028 11.385139 3.798169 33.400604 68.01964
2004-05-05 07:30:02 51°20.155 2°46.002 11.388675 3.799434 33.412276 68.053349
2004-05-05 07:30:07 51°20.162 2°45.971 11.389823 3.799117 33.409896 68.053349
2004-05-05 07:30:13 51°20.169 2°45.934 11.392532 3.799223 33.411646 68.053349
2004-05-05 07:30:18 51°20.176 2°45.903 11.392532 3.799223 33.411646 68.053349
2004-05-05 07:30:22 51°20.181 2°45.878 11.387665 3.79975 33.417527 68.01964
2004-05-05 07:30:28 51°20.188 2°45.84 11.392486 3.800171 33.420939 68.01964
2004-05-05 07:30:33 51°20.195 2°45.808 11.389777 3.800488 33.421883 68.01964
2004-05-05 07:30:38 51°20.201 2°45.777 11.388905 3.801647 33.432522 68.01964
2004-05-05 07:30:42 51°20.206 2°45.751 11.389272 3.80249 33.440064 68.053349
2004-05-05 07:30:48 51°20.213 2°45.712 11.389272 3.80249 33.440064 68.053349
2004-05-05 07:30:52 51°20.219 2°45.687 11.39065 3.802912 33.443476 68.087059
2004-05-05 07:30:58 51°20.226 2°45.648 11.389318 3.803439 33.447202 68.053349
2004-05-05 07:31:02 51°20.231 2°45.622 11.390971 3.804282 33.455462 68.053349
2004-05-05 07:31:08 51°20.238 2°45.583 11.387573 3.804071 33.454834 68.01964
2004-05-05 07:31:13 51°20.245 2°45.551 11.383716 3.804493 33.458246 68.053349
2004-05-05 07:31:18 51°20.25 2°45.518 11.383716 3.804493 33.458246 68.053349
2004-05-05 07:31:21 51°20.253 2°45.498 11.385369 3.805441 33.467539 68.01964
2004-05-05 07:31:28 51°20.26 2°45.452 11.387481 3.804809 33.460625 68.087059
2004-05-05 07:31:32 51°20.264 2°45.425 11.393451 3.804809 33.464219 68.053349
2004-05-05 07:31:37 51°20.268 2°45.392 11.39143 3.80502 33.465565 68.053349
2004-05-05 07:31:42 51°20.273 2°45.359 11.393359 3.80502 33.468441 68.053349
2004-05-05 07:31:48 51°20.279 2°45.32 11.393359 3.80502 33.468441 68.053349
2004-05-05 07:31:53 51°20.283 2°45.287 11.391706 3.805547 33.473605 68.053349
2004-05-05 07:31:58 51°20.287 2°45.254 11.395609 3.806179 33.479083 68.087059
2004-05-05 07:32:02 51°20.291 2°45.227 11.395655 3.806601 33.480337 68.01964
2004-05-05 07:32:08 51°20.296 2°45.187 11.398593 3.807128 33.484781 68.01964
2004-05-05 07:32:13 51°20.301 2°45.154 11.400659 3.807128 33.484062 68.053349
2004-05-05 07:32:18 51°20.306 2°45.121 11.400659 3.807128 33.484062 68.053349
2004-05-05 07:32:22 51°20.31 2°45.095 11.400062 3.807971 33.493043 68.053349
2004-05-05 07:32:28 51°20.315 2°45.056 11.405112 3.808603 33.497801 68.053349
2004-05-05 07:32:33 51°20.32 2°45.023 11.406949 3.808919 33.49874 68.087059
2004-05-05 07:32:38 51°20.325 2°44.991 11.4131 3.809236 33.49968 68.087059
2004-05-05 07:32:42 51°20.329 2°44.964 11.413329 3.81029 33.509287 68.120768
2004-05-05 07:32:48 51°20.334 2°44.925 11.413329 3.81029 33.509287 68.120768
2004-05-05 07:32:53 51°20.339 2°44.892 11.416542 3.810711 33.512698 68.087059
2004-05-05 07:32:58 51°20.344 2°44.86 11.416037 3.81166 33.519112 68.087059
2004-05-05 07:33:02 51°20.348 2°44.834 11.417781 3.812714 33.527999 68.120768
2004-05-05 07:33:08 51°20.354 2°44.795 11.418791 3.814506 33.542673 68.087059
2004-05-05 07:33:13 51°20.358 2°44.762 11.422325 3.815138 33.545987 68.087059
2004-05-05 07:33:18 51°20.363 2°44.729 11.422325 3.815138 33.545987 68.087059
2004-05-05 07:33:22 51°20.367 2°44.703 11.423335 3.815876 33.551054 68.053349
2004-05-05 07:33:28 51°20.372 2°44.663 11.426639 3.816192 33.553432 68.087059
2004-05-05 07:33:32 51°20.376 2°44.637 11.43467 3.817457 33.565101 68.053349
2004-05-05 07:33:38 51°20.381 2°44.598 11.436827 3.818405 33.573674 68.087059
2004-05-05 07:33:42 51°20.386 2°44.572 11.444122 3.819143 33.576577 68.087059
2004-05-05 07:33:48 51°20.391 2°44.533 11.444122 3.819143 33.576577 68.087059
2004-05-05 07:33:53 51°20.396 2°44.5 11.447792 3.820302 33.585772 68.087059
2004-05-05 07:33:58 51°20.401 2°44.468 11.451325 3.821883 33.596933 68.087059
2004-05-05 07:34:02 51°20.405 2°44.442 11.456371 3.823043 33.606847 68.120768
2004-05-05 07:34:08 51°20.41 2°44.403 11.462105 3.824518 33.617694 68.120768
2004-05-05 07:34:13 51°20.415 2°44.371 11.467517 3.826416 33.630504 68.154477
2004-05-05 07:34:18 51°20.42 2°44.339 11.467517 3.826416 33.630504 68.154477
2004-05-05 07:34:22 51°20.424 2°44.313 11.475359 3.828629 33.648573 68.154477
2004-05-05 07:34:28 51°20.428 2°44.275 11.480954 3.829999 33.659105 68.356734
2004-05-05 07:34:33 51°20.433 2°44.243 11.488473 3.832002 33.675106 68.424153
2004-05-05 07:34:38 51°20.437 2°44.211 11.498376 3.833161 33.682849 67.817383
2004-05-05 07:34:42 51°20.441 2°44.185 11.511532 3.835058 33.695648 66.839811
2004-05-05 07:34:48 51°20.446 2°44.147 11.511532 3.835058 33.695648 66.839811
2004-05-05 07:34:53 51°20.45 2°44.114 11.52276 3.836323 33.702252 66.064494
2004-05-05 07:34:58 51°20.454 2°44.082 11.533162 3.83959 33.72846 64.07564
2004-05-05 07:35:02 51°20.457 2°44.056 11.540859 3.841488 33.740527 62.558717
2004-05-05 07:35:08 51°20.463 2°44.018 11.550479 3.845704 33.773117 60.367606
2004-05-05 07:35:12 51°20.466 2°43.992 11.554097 3.849814 33.804667 57.906819
2004-05-05 07:35:18 51°20.472 2°43.953 11.554097 3.849814 33.804667 57.906819
2004-05-05 07:35:22 51°20.476 2°43.928 11.561746 3.854452 33.839192 55.446033
2004-05-05 07:35:28 51°20.481 2°43.89 11.56628 3.857825 33.865677 53.322341
2004-05-05 07:35:33 51°20.486 2°43.858 11.571546 3.850868 33.788212 51.13123
2004-05-05 07:35:38 51°20.49 2°43.826 11.56944 3.863095 33.900566 49.310922
2004-05-05 07:35:42 51°20.493 2°43.8 11.576308 3.866047 33.922909 47.72658
2004-05-05 07:35:48 51°20.498 2°43.762 11.576308 3.866047 33.922909 47.72658
2004-05-05 07:35:52 51°20.502 2°43.736 11.573149 3.868049 33.936694 46.715298
2004-05-05 07:35:58 51°20.507 2°43.698 11.574523 3.869314 33.943985 45.602888
2004-05-05 07:36:02 51°20.511 2°43.672 11.56944 3.87216 33.967464 44.389349
2004-05-05 07:36:08 51°20.516 2°43.634 11.5497 3.873003 33.974258 43.445486
2004-05-05 07:36:13 51°20.52 2°43.602 11.521019 3.875744 33.998156 42.299366
2004-05-05 07:36:18 51°20.525 2°43.57 11.521019 3.875744 33.998156 42.299366
2004-05-05 07:36:22 51°20.528 2°43.544 11.503281 3.877325 34.012893 41.422922
2004-05-05 07:36:28 51°20.533 2°43.506 11.486869 3.87859 34.025992 40.816153
2004-05-05 07:36:33 51°20.538 2°43.473 11.467609 3.880382 34.049343 39.737452
2004-05-05 07:36:38 51°20.542 2°43.441 11.448297 3.88249 34.082357 39.063264
2004-05-05 07:36:42 51°20.546 2°43.415 11.440314 3.884177 34.11419 38.591332
2004-05-05 07:36:48 51°20.551 2°43.376 11.440314 3.884177 34.11419 38.591332
2004-05-05 07:36:53 51°20.556 2°43.344 11.439075 3.884915 34.137488 37.984563
2004-05-05 07:36:58 51°20.56 2°43.311 11.430586 3.88618 34.166709 37.0407
2004-05-05 07:37:02 51°20.564 2°43.286 11.429072 3.886286 34.181657 36.501349
2004-05-05 07:37:08 51°20.569 2°43.247 11.428383 3.886919 34.203255 35.759742
2004-05-05 07:37:12 51°20.573 2°43.221 11.420444 3.886392 34.209088 35.254101
2004-05-05 07:37:17 51°20.578 2°43.189 11.420444 3.886392 34.209088 35.254101
2004-05-05 07:37:22 51°20.582 2°43.156 11.424115 3.886392 34.216428 35.018136
2004-05-05 07:37:28 51°20.587 2°43.117 11.427649 3.885865 34.218596 34.78217
2004-05-05 07:37:33 51°20.592 2°43.085 11.425813 3.885549 34.21696 34.411366
2004-05-05 07:37:38 51°20.596 2°43.053 11.412778 3.884811 34.209714 33.939435
2004-05-05 07:37:42 51°20.6 2°43.027 11.420811 3.885232 34.2212 33.872016
2004-05-05 07:37:48 51°20.605 2°42.988 11.420811 3.885232 34.2212 33.872016
2004-05-05 07:37:53 51°20.61 2°42.956 11.415119 3.885022 34.220598 33.501212
2004-05-05 07:37:58 51°20.614 2°42.924 11.411677 3.884705 34.218227 33.029281
2004-05-05 07:38:02 51°20.618 2°42.899 11.40346 3.8846 34.217926 32.793315
2004-05-05 07:38:08 51°20.624 2°42.86 11.393037 3.8846 34.220865 32.591059
2004-05-05 07:38:13 51°20.628 2°42.827 11.382797 3.884389 34.220264 32.557349
2004-05-05 07:38:18 51°20.632 2°42.795 11.382797 3.884389 34.220264 32.557349
2004-05-05 07:38:22 51°20.636 2°42.769 11.376643 3.8846 34.223805 31.95058
2004-05-05 07:38:28 51°20.642 2°42.731 11.375082 3.885338 34.235465 31.680905
2004-05-05 07:38:33 51°20.645 2°42.698 11.36686 3.884706 34.235869 31.107845
2004-05-05 07:38:38 51°20.65 2°42.666 11.363691 3.88439 34.239381 30.534785
2004-05-05 07:38:42 51°20.653 2°42.64 11.359924 3.88439 34.246004 30.298819
2004-05-05 07:38:47 51°20.658 2°42.609 11.359924 3.88439 34.246004 30.298819
2004-05-05 07:38:53 51°20.663 2°42.57 11.348162 3.883968 34.248484 29.69205
2004-05-05 07:38:58 51°20.668 2°42.539 11.347381 3.884074 34.253939 29.793178
2004-05-05 07:39:02 51°20.672 2°42.513 11.339754 3.883863 34.257021 29.085281
2004-05-05 07:39:08 51°20.678 2°42.475 11.33309 3.883547 34.258331 28.478512
2004-05-05 07:39:13 51°20.683 2°42.443 11.317876 3.883758 34.264827 28.175127
2004-05-05 07:39:18 51°20.687 2°42.411 11.317876 3.883758 34.264827 28.175127
2004-05-05 07:39:22 51°20.69 2°42.386 11.307073 3.883547 34.26865 27.46723
2004-05-05 07:39:28 51°20.695 2°42.352 11.307027 3.883758 34.277362 26.793042
2004-05-05 07:39:32 51°20.698 2°42.331 11.296957 3.880912 34.257461 26.118853
2004-05-05 07:39:37 51°20.701 2°42.306 11.281689 3.883125 34.282941 25.680631
2004-05-05 07:39:42 51°20.702 2°42.283 11.27617 3.87775 34.238128 25.478375
2004-05-05 07:39:48 51°20.702 2°42.258 11.27617 3.87775 34.238128 25.478375
2004-05-05 07:39:53 51°20.702 2°42.239 11.269822 3.883231 34.302441 24.871606
2004-05-05 07:39:58 51°20.701 2°42.22 11.264762 3.876485 34.241896 24.332255
2004-05-05 07:40:02 51°20.7 2°42.206 11.259057 3.877434 34.25936 23.961452
2004-05-05 07:40:08 51°20.696 2°42.186 11.251511 3.876591 34.259174 23.658067
2004-05-05 07:40:13 51°20.693 2°42.171 11.24944 3.875115 34.252015 23.152426
2004-05-05 07:40:18 51°20.689 2°42.156 11.24944 3.875115 34.252015 23.152426
2004-05-05 07:40:21 51°20.686 2°42.148 11.251925 3.879121 34.300372 22.983879
2004-05-05 07:40:28 51°20.679 2°42.13 11.250498 3.875115 34.265314 22.91646
2004-05-05 07:40:32 51°20.675 2°42.121 11.24921 3.879859 34.318011 22.410819
2004-05-05 07:40:37 51°20.67 2°42.111 11.245528 3.87754 34.301059 21.905178
2004-05-05 07:40:42 51°20.664 2°42.101 11.241341 3.873745 34.267327 21.871469
2004-05-05 07:40:48 51°20.657 2°42.09 11.241341 3.873745 34.267327 21.871469
2004-05-05 07:40:53 51°20.652 2°42.083 11.236462 3.877118 34.300601 21.601794
2004-05-05 07:40:58 51°20.646 2°42.076 11.235496 3.878278 34.313521 21.669212
2004-05-05 07:41:02 51°20.641 2°42.072 11.231399 3.878172 34.314703 21.601794
2004-05-05 07:41:08 51°20.634 2°42.067 11.230525 3.875115 34.288244 21.635503
2004-05-05 07:41:12 51°20.629 2°42.065 11.231537 3.881124 34.349016 21.601794
2004-05-05 07:41:18 51°20.622 2°42.062 11.231537 3.881124 34.349016 21.601794
2004-05-05 07:41:22 51°20.618 2°42.062 11.224495 3.880281 34.342177 21.601794
2004-05-05 07:41:27 51°20.613 2°42.062 11.223896 3.873113 34.275143 21.500665
2004-05-05 07:41:33 51°20.607 2°42.063 11.222423 3.879648 34.342608 21.197281
2004-05-05 07:41:37 51°20.603 2°42.064 11.224633 3.876275 34.312277 21.365828
2004-05-05 07:41:42 51°20.599 2°42.066 11.227533 3.87501 34.299792 21.500665
2004-05-05 07:41:48 51°20.595 2°42.07 11.227533 3.87501 34.299792 21.500665
2004-05-05 07:41:53 51°20.592 2°42.074 11.230341 3.88007 34.352705 21.601794
2004-05-05 07:41:58 51°20.59 2°42.078 11.228822 3.872691 34.279865 21.669212
2004-05-05 07:42:02 51°20.588 2°42.082 11.23545 3.874167 34.295172 21.534375
2004-05-05 07:42:08 51°20.587 2°42.088 11.230893 3.872375 34.276004 21.702922
2004-05-05 07:42:13 51°20.586 2°42.093 11.232274 3.874167 34.294431 21.601794
2004-05-05 07:42:18 51°20.587 2°42.098 11.232274 3.874167 34.294431 21.601794
2004-05-05 07:42:22 51°20.587 2°42.103 11.23301 3.872059 34.270662 21.905178
2004-05-05 07:42:28 51°20.589 2°42.11 11.238257 3.880597 34.355682 21.905178
2004-05-05 07:42:33 51°20.59 2°42.116 11.23904 3.87617 34.309755 21.905178
2004-05-05 07:42:38 51°20.592 2°42.123 11.237475 3.872691 34.275423 22.006306
2004-05-05 07:42:42 51°20.594 2°42.129 11.246035 3.874905 34.295789 21.905178
2004-05-05 07:42:48 51°20.597 2°42.137 11.246035 3.874905 34.295789 21.905178
2004-05-05 07:42:53 51°20.6 2°42.145 11.243458 3.881335 34.357773 22.174853
2004-05-05 07:42:58 51°20.603 2°42.153 11.241203 3.881651 34.359411 22.646785
2004-05-05 07:43:02 51°20.605 2°42.161 11.235956 3.881756 34.35971 22.91646
2004-05-05 07:43:08 51°20.608 2°42.171 11.237337 3.881229 34.352282 22.815332
2004-05-05 07:43:13 51°20.611 2°42.18 11.233701 3.88144 34.352138 22.95017
2004-05-05 07:43:18 51°20.613 2°42.19 11.233701 3.88144 34.352138 22.95017
2004-05-05 07:43:22 51°20.615 2°42.198 11.239408 3.880491 34.342774 22.983879
2004-05-05 07:43:28 51°20.619 2°42.21 11.23637 3.881018 34.350201 23.085007
2004-05-05 07:43:32 51°20.621 2°42.218 11.227579 3.880491 34.34574 23.085007
2004-05-05 07:43:38 51°20.625 2°42.23 11.231123 3.881018 34.350943 23.253554
2004-05-05 07:43:42 51°20.628 2°42.238 11.226658 3.880702 34.34708 23.186136
2004-05-05 07:43:48 51°20.631 2°42.251 11.226658 3.880702 34.34708 23.186136
2004-05-05 07:43:53 51°20.635 2°42.261 11.233516 3.881862 34.359266 23.118717
2004-05-05 07:43:58 51°20.637 2°42.272 11.237153 3.881018 34.351684 22.983879
2004-05-05 07:44:00 51°20.639 2°42.276 11.232044 3.880597 34.350489 22.95017
2004-05-05 07:44:08 51°20.644 2°42.294 11.226796 3.881229 34.358958 22.882751
2004-05-05 07:44:13 51°20.648 2°42.305 11.23278 3.879859 34.345431 22.545657
2004-05-05 07:44:18 51°20.651 2°42.315 11.23278 3.879859 34.345431 22.545657
2004-05-05 07:44:22 51°20.654 2°42.323 11.225783 3.879964 34.345729 22.781623
2004-05-05 07:44:28 51°20.658 2°42.335 11.223574 3.881018 34.354651 22.714204
2004-05-05 07:44:33 51°20.662 2°42.343 11.222423 3.881229 34.358216 22.37711
2004-05-05 07:44:37 51°20.664 2°42.351 11.222607 3.880702 34.355239 22.511947
2004-05-05 07:44:42 51°20.666 2°42.359 11.228177 3.879332 34.342453 22.680494
2004-05-05 07:44:48 51°20.667 2°42.368 11.228177 3.879332 34.342453 22.680494
2004-05-05 07:44:53 51°20.667 2°42.375 11.228085 3.879964 34.350922 22.849042
2004-05-05 07:44:58 51°20.667 2°42.382 11.226888 3.880386 34.356569 22.95017
2004-05-05 07:45:00 51°20.667 2°42.385 11.237014 3.880386 34.356569 22.747913
2004-05-05 07:45:08 51°20.665 2°42.394 11.234207 3.879859 34.350623 22.815332
2004-05-05 07:45:13 51°20.664 2°42.399 11.255192 3.879016 34.339331 22.849042
2004-05-05 07:45:18 51°20.662 2°42.404 11.255192 3.879016 34.339331 22.849042
2004-05-05 07:45:22 51°20.66 2°42.407 11.24042 3.879543 34.341567 22.882751
2004-05-05 07:45:28 51°20.658 2°42.412 11.238809 3.877962 34.322995 22.680494
2004-05-05 07:45:33 51°20.655 2°42.416 11.239132 3.880808 34.346637 22.815332
2004-05-05 07:45:37 51°20.653 2°42.419 11.24065 3.880386 34.338769 22.781623
2004-05-05 07:45:42 51°20.65 2°42.423 11.247783 3.880386 34.334322 22.882751
2004-05-05 07:45:48 51°20.646 2°42.426 11.247783 3.880386 34.334322 22.882751
2004-05-05 07:45:53 51°20.643 2°42.429 11.242491 3.880597 34.338625 22.849042
2004-05-05 07:45:58 51°20.638 2°42.431 11.233424 3.880491 34.34055 22.680494
2004-05-05 07:46:03 51°20.634 2°42.434 11.240282 3.88007 34.335648 22.545657
2004-05-05 07:46:08 51°20.629 2°42.435 11.238763 3.879753 34.332527 22.815332
2004-05-05 07:46:12 51°20.625 2°42.436 11.232504 3.879964 34.333126 22.91646
2004-05-05 07:46:17 51°20.619 2°42.437 11.232504 3.879964 34.333126 22.91646
2004-05-05 07:46:22 51°20.613 2°42.437 11.25013 3.879964 34.333867 22.815332
2004-05-05 07:46:28 51°20.606 2°42.435 11.241157 3.879964 34.336832 22.91646
2004-05-05 07:46:32 51°20.601 2°42.433 11.244516 3.879753 34.335492 22.714204
2004-05-05 07:46:38 51°20.594 2°42.429 11.238763 3.880281 34.341435 22.91646
2004-05-05 07:46:42 51°20.589 2°42.426 11.242353 3.879753 34.336975 22.91646
2004-05-05 07:46:48 51°20.581 2°42.419 11.242353 3.879753 34.336975 22.91646
2004-05-05 07:46:53 51°20.576 2°42.412 11.24401 3.88007 34.339355 22.95017
2004-05-05 07:46:58 51°20.571 2°42.403 11.245528 3.879859 34.33505 23.253554
2004-05-05 07:47:02 51°20.567 2°42.396 11.246449 3.879648 34.333711 23.556939
2004-05-05 07:47:08 51°20.562 2°42.384 11.245298 3.88007 34.339355 23.253554
2004-05-05 07:47:13 51°20.558 2°42.373 11.251419 3.88007 34.339355 23.085007
2004-05-05 07:47:18 51°20.556 2°42.361 11.251419 3.88007 34.339355 23.085007
2004-05-05 07:47:22 51°20.554 2°42.351 11.252109 3.88007 34.338613 23.051298
2004-05-05 07:47:28 51°20.553 2°42.336 11.253903 3.879753 34.334751 23.48952
2004-05-05 07:47:33 51°20.553 2°42.323 11.256342 3.879648 34.333711 23.52323
2004-05-05 07:47:38 51°20.553 2°42.31 11.256986 3.879859 34.333568 23.085007
2004-05-05 07:47:42 51°20.554 2°42.3 11.260667 3.879753 34.330304 23.219845
2004-05-05 07:47:48 51°20.556 2°42.285 11.260667 3.879753 34.330304 23.219845
2004-05-05 07:47:53 51°20.559 2°42.274 11.257584 3.879859 34.329862 23.051298
2004-05-05 07:47:58 51°20.561 2°42.264 11.261403 3.879543 34.324519 23.017589
2004-05-05 07:48:02 51°20.564 2°42.256 11.259517 3.879648 34.324819 23.253554
2004-05-05 07:48:08 51°20.567 2°42.246 11.255836 3.879753 34.323636 23.320973
2004-05-05 07:48:13 51°20.571 2°42.238 11.253811 3.879753 34.323636 23.691777
2004-05-05 07:48:18 51°20.574 2°42.23 11.253811 3.879753 34.323636 23.691777
2004-05-05 07:48:21 51°20.577 2°42.226 11.252017 3.879859 34.323195 23.658067
2004-05-05 07:48:28 51°20.582 2°42.217 11.250774 3.879859 34.322454 24.06258
2004-05-05 07:48:33 51°20.586 2°42.211 11.247553 3.879964 34.324235 23.894033
2004-05-05 07:48:36 51°20.588 2°42.209 11.244792 3.880386 34.328394 23.961452
2004-05-05 07:48:41 51°20.592 2°42.204 11.243274 3.88007 34.327497 24.365965
2004-05-05 07:48:48 51°20.597 2°42.198 11.243274 3.88007 34.327497 24.365965
2004-05-05 07:48:53 51°20.601 2°42.196 11.243964 3.88028 34.3318 24.467093
2004-05-05 07:48:58 51°20.605 2°42.194 11.23904 3.880175 34.332242 24.399674
2004-05-05 07:49:02 51°20.608 2°42.192 11.238625 3.880386 34.336545 24.129999
2004-05-05 07:49:08 51°20.612 2°42.191 11.235818 3.880175 34.33743 24.06258
2004-05-05 07:49:13 51°20.616 2°42.19 11.236646 3.880175 34.338171 23.826614
2004-05-05 07:49:18 51°20.619 2°42.19 11.236646 3.880175 34.338171 23.826614
2004-05-05 07:49:22 51°20.621 2°42.19 11.234667 3.880281 34.340694 23.995161
2004-05-05 07:49:28 51°20.624 2°42.191 11.237245 3.879964 34.338314 23.792905
2004-05-05 07:49:32 51°20.626 2°42.192 11.233332 3.88007 34.341579 23.961452
2004-05-05 07:49:38 51°20.628 2°42.194 11.236002 3.879754 34.339941 23.927742
2004-05-05 07:49:41 51°20.63 2°42.195 11.230387 3.879964 34.342021 23.725486
2004-05-05 07:49:48 51°20.632 2°42.197 11.230387 3.879964 34.342021 23.725486
2004-05-05 07:49:53 51°20.634 2°42.199 11.228223 3.879754 34.340682 23.52323
2004-05-05 07:49:58 51°20.635 2°42.201 11.231767 3.879648 34.3389 23.253554
2004-05-05 07:50:02 51°20.636 2°42.203 11.231998 3.879859 34.341723 23.455811
2004-05-05 07:50:08 51°20.637 2°42.206 11.234713 3.88007 34.344545 23.388392
2004-05-05 07:50:13 51°20.638 2°42.209 11.233194 3.88007 34.343803 23.590648
2004-05-05 07:50:17 51°20.639 2°42.211 11.233194 3.88007 34.343803 23.590648
2004-05-05 07:50:22 51°20.64 2°42.214 11.231906 3.879859 34.341723 23.287264
2004-05-05 07:50:28 51°20.641 2°42.218 11.237981 3.879964 34.344988 23.085007
2004-05-05 07:50:33 51°20.641 2°42.221 11.229144 3.879964 34.345729 23.017589
2004-05-05 07:50:38 51°20.642 2°42.224 11.233424 3.879964 34.344988 23.219845
2004-05-05 07:50:42 51°20.642 2°42.227 11.229236 3.879964 34.345729 23.388392
2004-05-05 07:50:48 51°20.643 2°42.231 11.229236 3.879964 34.345729 23.388392
2004-05-05 07:50:53 51°20.644 2°42.234 11.224264 3.879964 34.346471 23.152426
2004-05-05 07:50:58 51°20.644 2°42.238 11.225737 3.879859 34.343947 22.983879
2004-05-05 07:51:02 51°20.644 2°42.241 11.223758 3.879754 34.345132 22.781623
2004-05-05 07:51:08 51°20.645 2°42.245 11.225876 3.879648 34.34335 22.781623
2004-05-05 07:51:13 51°20.646 2°42.248 11.225139 3.879543 34.345276 22.781623
2004-05-05 07:51:18 51°20.646 2°42.252 11.225139 3.879543 34.345276 22.781623
2004-05-05 07:51:22 51°20.647 2°42.255 11.225507 3.879437 34.346461 22.680494
2004-05-05 07:51:28 51°20.648 2°42.259 11.226796 3.879227 34.345121 22.579366
2004-05-05 07:51:33 51°20.649 2°42.263 11.231675 3.879227 34.345121 22.3434
2004-05-05 07:51:38 51°20.65 2°42.267 11.227533 3.879543 34.348243 22.646785
2004-05-05 07:51:42 51°20.651 2°42.27 11.226566 3.879437 34.347202 22.747913
2004-05-05 07:51:48 51°20.652 2°42.274 11.226566 3.879437 34.347202 22.747913
2004-05-05 07:51:53 51°20.653 2°42.278 11.227026 3.879016 34.34304 22.747913
2004-05-05 07:51:58 51°20.654 2°42.282 11.223666 3.879437 34.345719 22.781623
2004-05-05 07:52:02 51°20.655 2°42.285 11.224218 3.879332 34.343936 22.680494
2004-05-05 07:52:08 51°20.656 2°42.29 11.224863 3.879332 34.343195 22.545657
2004-05-05 07:52:12 51°20.657 2°42.293 11.225691 3.879543 34.346018 22.815332
2004-05-05 07:52:18 51°20.658 2°42.297 11.225691 3.879543 34.346018 22.815332
2004-05-05 07:52:22 51°20.659 2°42.3 11.227395 3.879543 34.346759 22.781623
2004-05-05 07:52:28 51°20.66 2°42.305 11.229696 3.879437 34.347944 22.747913
2004-05-05 07:52:33 51°20.661 2°42.309 11.22721 3.879437 34.346461 22.91646
2004-05-05 07:52:37 51°20.662 2°42.312 11.224863 3.879121 34.34408 22.95017
2004-05-05 07:52:41 51°20.663 2°42.314 11.225231 3.879121 34.34408 22.781623
2004-05-05 07:52:48 51°20.665 2°42.32 11.225231 3.879121 34.34408 22.781623
2004-05-05 07:52:53 51°20.666 2°42.323 11.225001 3.879332 34.346904 22.478238
2004-05-05 07:52:58 51°20.667 2°42.327 11.223528 3.879016 34.342298 22.91646
2004-05-05 07:53:02 51°20.668 2°42.329 11.226152 3.879227 34.345121 23.017589
2004-05-05 07:53:08 51°20.67 2°42.333 11.22919 3.87891 34.343482 22.781623
2004-05-05 07:53:13 51°20.672 2°42.337 11.226658 3.878805 34.342442 22.849042
2004-05-05 07:53:18 51°20.673 2°42.34 11.226658 3.878805 34.342442 22.849042
2004-05-05 07:53:22 51°20.674 2°42.343 11.229374 3.879227 34.346605 22.882751
2004-05-05 07:53:28 51°20.676 2°42.348 11.231906 3.879332 34.346162 22.815332
2004-05-05 07:53:33 51°20.678 2°42.351 11.230387 3.879016 34.342298 22.95017
2004-05-05 07:53:38 51°20.679 2°42.355 11.231629 3.879227 34.343637 22.747913
2004-05-05 07:53:41 51°20.68 2°42.357 11.230018 3.879121 34.341855 22.91646
2004-05-05 07:53:48 51°20.682 2°42.362 11.230018 3.879121 34.341855 22.91646
2004-05-05 07:53:52 51°20.683 2°42.366 11.231491 3.87891 34.339774 22.91646
2004-05-05 07:53:58 51°20.684 2°42.371 11.232044 3.879121 34.33963 22.983879
2004-05-05 07:54:02 51°20.685 2°42.374 11.230985 3.879121 34.341113 22.680494
2004-05-05 07:54:08 51°20.685 2°42.379 11.234575 3.879121 34.341113 22.849042
2004-05-05 07:54:12 51°20.685 2°42.382 11.236876 3.879016 34.340073 22.983879
2004-05-05 07:54:18 51°20.685 2°42.387 11.236876 3.879016 34.340073 22.983879
2004-05-05 07:54:22 51°20.685 2°42.391 11.240834 3.879121 34.338888 23.017589
2004-05-05 07:54:28 51°20.684 2°42.396 11.242629 3.879016 34.336365 23.354683
2004-05-05 07:54:32 51°20.684 2°42.399 11.242721 3.879016 34.336365 22.91646
2004-05-05 07:54:37 51°20.683 2°42.403 11.247093 3.878805 34.33206 22.849042
2004-05-05 07:54:40 51°20.683 2°42.405 11.247415 3.879121 34.332957 22.680494
2004-05-05 07:54:48 51°20.681 2°42.411 11.247415 3.879121 34.332957 22.680494
2004-05-05 07:54:53 51°20.681 2°42.415 11.251419 3.879121 34.330733 22.714204
2004-05-05 07:54:58 51°20.679 2°42.419 11.252063 3.878699 34.326572 22.91646
2004-05-05 07:55:02 51°20.679 2°42.422 11.253397 3.878805 34.326871 22.91646
2004-05-05 07:55:08 51°20.678 2°42.426 11.254179 3.878805 34.323907 23.017589
2004-05-05 07:55:12 51°20.677 2°42.429 11.256802 3.879226 34.324363 23.152426
2004-05-05 07:55:18 51°20.676 2°42.434 11.256802 3.879226 34.324363 23.152426
2004-05-05 07:55:22 51°20.676 2°42.437 11.25556 3.879015 34.321542 23.118717
2004-05-05 07:55:28 51°20.675 2°42.441 11.258274 3.87891 34.320502 23.320973
2004-05-05 07:55:33 51°20.674 2°42.444 11.262553 3.87891 34.31828 23.759195
2004-05-05 07:55:38 51°20.673 2°42.448 11.258781 3.879121 34.318878 23.860324
2004-05-05 07:55:42 51°20.672 2°42.451 11.259287 3.87891 34.316058 23.995161
2004-05-05 07:55:48 51°20.671 2°42.456 11.259287 3.87891 34.316058 23.995161
2004-05-05 07:55:52 51°20.67 2°42.458 11.260023 3.878805 34.313537 23.995161
2004-05-05 07:55:58 51°20.668 2°42.463 11.261909 3.879015 34.314876 24.06258
2004-05-05 07:56:02 51°20.667 2°42.467 11.267016 3.87891 34.311615 23.995161
2004-05-05 07:56:08 51°20.664 2°42.472 11.266878 3.879015 34.313395 23.995161
2004-05-05 07:56:13 51°20.662 2°42.476 11.268074 3.879332 34.315033 24.197418
2004-05-05 07:56:18 51°20.659 2°42.48 11.268074 3.879332 34.315033 24.197418
2004-05-05 07:56:22 51°20.656 2°42.483 11.270328 3.879121 34.312954 24.129999
2004-05-05 07:56:28 51°20.651 2°42.487 11.276216 3.879121 34.309993 24.332255
2004-05-05 07:56:33 51°20.647 2°42.49 11.27387 3.879332 34.309851 24.467093
2004-05-05 07:56:38 51°20.643 2°42.493 11.27709 3.879437 34.310151 24.163708
2004-05-05 07:56:42 51°20.638 2°42.494 11.275066 3.879121 34.305552 24.096289
2004-05-05 07:56:48 51°20.632 2°42.496 11.275066 3.879121 34.305552 24.096289
2004-05-05 07:56:52 51°20.628 2°42.496 11.284863 3.879121 34.303332 24.163708
2004-05-05 07:56:58 51°20.621 2°42.496 11.281505 3.879015 34.300813 24.028871
2004-05-05 07:57:02 51°20.616 2°42.495 11.276952 3.878699 34.296215 24.231127
2004-05-05 07:57:08 51°20.609 2°42.492 11.281689 3.878699 34.296215 24.60193
2004-05-05 07:57:12 51°20.604 2°42.49 11.284679 3.878383 34.291618 24.905315
2004-05-05 07:57:18 51°20.597 2°42.484 11.284679 3.878383 34.291618 24.905315
2004-05-05 07:57:22 51°20.592 2°42.48 11.28638 3.878383 34.28866 24.905315
2004-05-05 07:57:28 51°20.586 2°42.473 11.282425 3.878383 34.28792 24.871606
2004-05-05 07:57:33 51°20.581 2°42.466 11.286518 3.878277 34.28836 25.2087
2004-05-05 07:57:38 51°20.576 2°42.457 11.287484 3.879015 34.292676 25.17499
2004-05-05 07:57:42 51°20.573 2°42.45 11.290933 3.878699 34.289559 25.714341
2004-05-05 07:57:48 51°20.569 2°42.438 11.290933 3.878699 34.289559 25.714341
2004-05-05 07:57:52 51°20.566 2°42.429 11.291991 3.878488 34.286741 25.309828
2004-05-05 07:57:58 51°20.563 2°42.416 11.292589 3.878488 34.286741 25.74805
2004-05-05 07:58:02 51°20.562 2°42.407 11.295762 3.878383 34.283484 25.646922
2004-05-05 07:58:08 51°20.561 2°42.392 11.293968 3.878593 34.284084 25.714341
2004-05-05 07:58:13 51°20.561 2°42.38 11.297693 3.878488 34.281567 25.680631
2004-05-05 07:58:18 51°20.562 2°42.369 11.297693 3.878488 34.281567 25.680631
2004-05-05 07:58:22 51°20.563 2°42.36 11.295394 3.878593 34.282606 25.714341
2004-05-05 07:58:28 51°20.566 2°42.347 11.295946 3.878593 34.281128 25.882888
2004-05-05 07:58:33 51°20.568 2°42.335 11.295118 3.878804 34.281727 26.152563
2004-05-05 07:58:38 51°20.571 2°42.323 11.29475 3.878804 34.280988 26.219982
2004-05-05 07:58:41 51°20.573 2°42.317 11.297141 3.878804 34.27951 26.085144
2004-05-05 07:58:48 51°20.578 2°42.301 11.297141 3.878804 34.27951 26.085144
2004-05-05 07:58:53 51°20.581 2°42.289 11.296911 3.87891 34.280549 26.186272
2004-05-05 07:58:58 51°20.586 2°42.278 11.294704 3.878699 34.278472 26.118853
2004-05-05 07:59:02 51°20.589 2°42.268 11.295624 3.878804 34.27951 26.186272
2004-05-05 07:59:08 51°20.595 2°42.254 11.293187 3.879015 34.281588 26.354819
2004-05-05 07:59:13 51°20.6 2°42.243 11.288772 3.87912 34.281888 26.624494
2004-05-05 07:59:18 51°20.605 2°42.231 11.288772 3.87912 34.281888 26.624494
2004-05-05 07:59:22 51°20.609 2°42.221 11.286105 3.879437 34.285743 26.118853
2004-05-05 07:59:28 51°20.615 2°42.206 11.283207 3.87912 34.283366 26.354819
2004-05-05 07:59:33 51°20.621 2°42.195 11.284863 3.879226 34.285883 26.219982